Wetterdaten: Samstag, 09.11.2013
Datum Zeit Temp. Aussen +5cm Feuchte Auss Luftdruck Regen Sonnenschein Regendauer UV Solar Windben
09.11.2013 00:00 9,7 C 8,3 C 97 % 1003,0 hPa 0,0 l/m 0 min 0 min 0,0 UV-I 0 W/m 12,9 km/h (3 Bft)
09.11.2013 00:02 9,7 C 8,3 C 97 % 1002,9 hPa 0,0 l/m 0 min 0 min 0,0 UV-I 0 W/m 10,3 km/h (2 Bft)
09.11.2013 00:06 9,8 C 8,3 C 98 % 1003,0 hPa 0,0 l/m 0 min 0 min 0,0 UV-I 0 W/m 7,7 km/h (2 Bft)
09.11.2013 00:08 9,8 C 8,9 C 98 % 1003,1 hPa 0,0 l/m 0 min 0 min 0,0 UV-I 0 W/m 15,4 km/h (3 Bft)
09.11.2013 00:10 9,8 C 8,9 C 98 % 1003,2 hPa 0,0 l/m 0 min 0 min 0,0 UV-I 0 W/m 23,2 km/h (4 Bft)
09.11.2013 00:12 9,8 C 8,9 C 98 % 1003,1 hPa 0,0 l/m 0 min 0 min 0,0 UV-I 0 W/m 7,7 km/h (2 Bft)
09.11.2013 00:14 9,8 C 8,3 C 98 % 1003,2 hPa 0,0 l/m 0 min 0 min 0,0 UV-I 0 W/m 18,0 km/h (3 Bft)
09.11.2013 00:16 9,9 C 8,9 C 98 % 1003,2 hPa 0,0 l/m 0 min 0 min 0,0 UV-I 0 W/m 12,9 km/h (3 Bft)
09.11.2013 00:18 9,9 C 8,9 C 98 % 1003,2 hPa 0,0 l/m 0 min 0 min 0,0 UV-I 0 W/m 7,7 km/h (2 Bft)
09.11.2013 00:20 9,9 C 8,9 C 98 % 1003,4 hPa 0,0 l/m 0 min 0 min 0,0 UV-I 0 W/m 12,9 km/h (3 Bft)
09.11.2013 00:22 9,9 C 8,9 C 98 % 1003,3 hPa 0,0 l/m 0 min 0 min 0,0 UV-I 0 W/m 15,4 km/h (3 Bft)
09.11.2013 00:24 9,9 C 8,9 C 98 % 1003,2 hPa 0,0 l/m 0 min 0 min 0,0 UV-I 0 W/m 10,3 km/h (2 Bft)
09.11.2013 00:26 9,9 C 8,9 C 98 % 1003,2 hPa 0,0 l/m 0 min 0 min 0,0 UV-I 0 W/m 7,7 km/h (2 Bft)
09.11.2013 00:28 9,9 C 8,9 C 98 % 1003,2 hPa 0,0 l/m 0 min 0 min 0,0 UV-I 0 W/m 18,0 km/h (3 Bft)
09.11.2013 00:30 9,9 C 8,9 C 98 % 1003,2 hPa 0,0 l/m 0 min 0 min 0,0 UV-I 0 W/m 10,3 km/h (2 Bft)
09.11.2013 00:32 9,9 C 8,3 C 98 % 1003,2 hPa 0,0 l/m 0 min 0 min 0,0 UV-I 0 W/m 15,4 km/h (3 Bft)
09.11.2013 00:34 9,9 C 8,3 C 98 % 1003,3 hPa 0,0 l/m 0 min 0 min 0,0 UV-I 0 W/m 10,3 km/h (2 Bft)
09.11.2013 00:36 9,9 C 8,3 C 98 % 1003,3 hPa 0,0 l/m 0 min 0 min 0,0 UV-I 0 W/m 7,7 km/h (2 Bft)
09.11.2013 00:38 9,9 C 8,3 C 97 % 1003,3 hPa 0,0 l/m 0 min 0 min 0,0 UV-I 0 W/m 20,6 km/h (4 Bft)
09.11.2013 00:40 9,9 C 8,3 C 97 % 1003,3 hPa 0,0 l/m 0 min 0 min 0,0 UV-I 0 W/m 20,6 km/h (4 Bft)
09.11.2013 00:42 9,9 C 8,3 C 97 % 1003,2 hPa 0,0 l/m 0 min 0 min 0,0 UV-I 0 W/m 36,0 km/h (5 Bft)
09.11.2013 00:44 9,9 C 8,3 C 97 % 1003,3 hPa 0,0 l/m 0 min 0 min 0,0 UV-I 0 W/m 18,0 km/h (3 Bft)
09.11.2013 00:46 9,9 C 8,3 C 97 % 1003,2 hPa 0,0 l/m 0 min 0 min 0,0 UV-I 0 W/m 10,3 km/h (2 Bft)
09.11.2013 00:48 9,9 C 8,3 C 97 % 1003,1 hPa 0,0 l/m 0 min 0 min 0,0 UV-I 0 W/m 7,7 km/h (2 Bft)
09.11.2013 00:50 9,9 C 8,3 C 97 % 1003,2 hPa 0,0 l/m 0 min 0 min 0,0 UV-I 0 W/m 12,9 km/h (3 Bft)
09.11.2013 00:52 9,9 C 8,3 C 97 % 1003,3 hPa 0,0 l/m 0 min 0 min 0,0 UV-I 0 W/m 7,7 km/h (2 Bft)
09.11.2013 00:54 10,0 C 8,3 C 97 % 1003,2 hPa 0,0 l/m 0 min 0 min 0,0 UV-I 0 W/m 10,3 km/h (2 Bft)
09.11.2013 00:56 10,0 C 8,3 C 97 % 1003,3 hPa 0,0 l/m 0 min 0 min 0,0 UV-I 0 W/m 10,3 km/h (2 Bft)
09.11.2013 00:58 10,0 C 8,3 C 97 % 1003,3 hPa 0,0 l/m 0 min 0 min 0,0 UV-I 0 W/m 12,9 km/h (3 Bft)
09.11.2013 01:00 10,0 C 8,3 C 97 % 1003,3 hPa 0,0 l/m 0 min 0 min 0,0 UV-I 0 W/m 12,9 km/h (3 Bft)
09.11.2013 01:02 10,0 C 8,3 C 97 % 1003,4 hPa 0,0 l/m 0 min 0 min 0,0 UV-I 0 W/m 20,6 km/h (4 Bft)
09.11.2013 01:04 10,0 C 8,3 C 97 % 1003,3 hPa 0,0 l/m 0 min 0 min 0,0 UV-I 0 W/m 18,0 km/h (3 Bft)
09.11.2013 01:06 10,0 C 8,3 C 96 % 1003,3 hPa 0,0 l/m 0 min 0 min 0,0 UV-I 0 W/m 12,9 km/h (3 Bft)
09.11.2013 01:08 10,0 C 8,3 C 96 % 1003,4 hPa 0,0 l/m 0 min 0 min 0,0 UV-I 0 W/m 15,4 km/h (3 Bft)
09.11.2013 01:10 10,0 C 8,3 C 96 % 1003,4 hPa 0,0 l/m 0 min 0 min 0,0 UV-I 0 W/m 15,4 km/h (3 Bft)
09.11.2013 01:12 10,0 C 8,3 C 96 % 1003,4 hPa 0,0 l/m 0 min 2 min 0,0 UV-I 0 W/m 7,7 km/h (2 Bft)
09.11.2013 01:14 10,0 C 8,3 C 96 % 1003,4 hPa 0,2 l/m 0 min 2 min 0,0 UV-I 0 W/m 18,0 km/h (3 Bft)
09.11.2013 01:16 10,0 C 8,3 C 96 % 1003,5 hPa 0,0 l/m 0 min 2 min 0,0 UV-I 0 W/m 12,9 km/h (3 Bft)
09.11.2013 01:18 10,0 C 8,3 C 96 % 1003,7 hPa 0,0 l/m 0 min 2 min 0,0 UV-I 0 W/m 33,5 km/h (5 Bft)
09.11.2013 01:20 9,9 C 8,3 C 95 % 1003,7 hPa 0,0 l/m 0 min 2 min 0,0 UV-I 0 W/m 12,9 km/h (3 Bft)
09.11.2013 01:22 9,9 C 8,3 C 95 % 1003,8 hPa 0,0 l/m 0 min 2 min 0,0 UV-I 0 W/m 10,3 km/h (2 Bft)
09.11.2013 01:24 9,9 C 8,3 C 95 % 1003,8 hPa 0,0 l/m 0 min 2 min 0,0 UV-I 0 W/m 20,6 km/h (4 Bft)
09.11.2013 01:26 9,9 C 7,8 C 95 % 1003,7 hPa 0,0 l/m 0 min 2 min 0,0 UV-I 0 W/m 12,9 km/h (3 Bft)
09.11.2013 01:28 9,9 C 7,8 C 95 % 1003,8 hPa 0,0 l/m 0 min 2 min 0,0 UV-I 0 W/m 12,9 km/h (3 Bft)
09.11.2013 01:30 9,9 C 7,8 C 95 % 1003,8 hPa 0,0 l/m 0 min 0 min 0,0 UV-I 0 W/m 23,2 km/h (4 Bft)
09.11.2013 01:32 9,8 C 7,8 C 95 % 1003,9 hPa 0,0 l/m 0 min 0 min 0,0 UV-I 0 W/m 30,9 km/h (5 Bft)
09.11.2013 01:34 9,8 C 7,8 C 95 % 1003,9 hPa 0,0 l/m 0 min 0 min 0,0 UV-I 0 W/m 23,2 km/h (4 Bft)
09.11.2013 01:36 9,7 C 7,8 C 95 % 1003,9 hPa 0,0 l/m 0 min 0 min 0,0 UV-I 0 W/m 18,0 km/h (3 Bft)
09.11.2013 01:38 9,7 C 7,8 C 95 % 1003,9 hPa 0,0 l/m 0 min 0 min 0,0 UV-I 0 W/m 20,6 km/h (4 Bft)
09.11.2013 01:40 9,7 C 7,8 C 95 % 1004,0 hPa 0,0 l/m 0 min 0 min 0,0 UV-I 0 W/m 28,3 km/h (4 Bft)
09.11.2013 01:42 9,6 C 7,8 C 94 % 1003,9 hPa 0,0 l/m 0 min 0 min 0,0 UV-I 0 W/m 23,2 km/h (4 Bft)
09.11.2013 01:44 9,6 C 7,8 C 94 % 1003,9 hPa 0,0 l/m 0 min 0 min 0,0 UV-I 0 W/m 12,9 km/h (3 Bft)
09.11.2013 01:46 9,6 C 7,2 C 94 % 1004,1 hPa 0,0 l/m 0 min 0 min 0,0 UV-I 0 W/m 10,3 km/h (2 Bft)
09.11.2013 01:48 9,6 C 7,2 C 94 % 1004,1 hPa 0,0 l/m 0 min 0 min 0,0 UV-I 0 W/m 30,9 km/h (5 Bft)
09.11.2013 01:50 9,5 C 7,2 C 94 % 1004,1 hPa 0,0 l/m 0 min 0 min 0,0 UV-I 0 W/m 12,9 km/h (3 Bft)
09.11.2013 01:52 9,5 C 7,8 C 94 % 1004,1 hPa 0,0 l/m 0 min 0 min 0,0 UV-I 0 W/m 10,3 km/h (2 Bft)
09.11.2013 01:54 9,4 C 7,8 C 94 % 1004,1 hPa 0,0 l/m 0 min 0 min 0,0 UV-I 0 W/m 0,0 km/h (0 Bft)
09.11.2013 01:56 9,4 C 7,8 C 94 % 1004,1 hPa 0,0 l/m 0 min 0 min 0,0 UV-I 0 W/m 18,0 km/h (3 Bft)
09.11.2013 01:58 9,4 C 7,8 C 94 % 1004,2 hPa 0,0 l/m 0 min 0 min 0,0 UV-I 0 W/m 18,0 km/h (3 Bft)
09.11.2013 02:00 9,4 C 7,8 C 94 % 1004,2 hPa 0,0 l/m 0 min 0 min 0,0 UV-I 0 W/m 23,2 km/h (4 Bft)
09.11.2013 02:02 9,4 C 7,2 C 93 % 1004,2 hPa 0,0 l/m 0 min 0 min 0,0 UV-I 0 W/m 23,2 km/h (4 Bft)
09.11.2013 02:04 9,4 C 7,2 C 93 % 1004,2 hPa 0,0 l/m 0 min 0 min 0,0 UV-I 0 W/m 12,9 km/h (3 Bft)
09.11.2013 02:06 9,4 C 7,2 C 93 % 1004,2 hPa 0,0 l/m 0 min 0 min 0,0 UV-I 0 W/m 12,9 km/h (3 Bft)
09.11.2013 02:08 9,4 C 7,2 C 93 % 1004,2 hPa 0,0 l/m 0 min 0 min 0,0 UV-I 0 W/m 28,3 km/h (4 Bft)
09.11.2013 02:10 9,4 C 7,2 C 93 % 1004,3 hPa 0,0 l/m 0 min 0 min 0,0 UV-I 0 W/m 18,0 km/h (3 Bft)
09.11.2013 02:12 9,4 C 7,2 C 93 % 1004,4 hPa 0,0 l/m 0 min 0 min 0,0 UV-I 0 W/m 25,7 km/h (4 Bft)
09.11.2013 02:14 9,4 C 7,2 C 92 % 1004,4 hPa 0,0 l/m 0 min 0 min 0,0 UV-I 0 W/m 23,2 km/h (4 Bft)
09.11.2013 02:16 9,4 C 7,2 C 92 % 1004,4 hPa 0,0 l/m 0 min 0 min 0,0 UV-I 0 W/m 23,2 km/h (4 Bft)
09.11.2013 02:18 9,4 C 7,2 C 92 % 1004,4 hPa 0,0 l/m 0 min 0 min 0,0 UV-I 0 W/m 10,3 km/h (2 Bft)
09.11.2013 02:20 9,4 C 7,2 C 92 % 1004,4 hPa 0,0 l/m 0 min 0 min 0,0 UV-I 0 W/m 25,7 km/h (4 Bft)
09.11.2013 02:22 9,4 C 7,2 C 92 % 1004,5 hPa 0,0 l/m 0 min 0 min 0,0 UV-I 0 W/m 23,2 km/h (4 Bft)
09.11.2013 02:24 9,4 C 7,2 C 91 % 1004,5 hPa 0,0 l/m 0 min 0 min 0,0 UV-I 0 W/m 18,0 km/h (3 Bft)
09.11.2013 02:26 9,4 C 7,2 C 91 % 1004,5 hPa 0,0 l/m 0 min 0 min 0,0 UV-I 0 W/m 10,3 km/h (2 Bft)
09.11.2013 02:28 9,4 C 7,2 C 91 % 1004,4 hPa 0,0 l/m 0 min 0 min 0,0 UV-I 0 W/m 15,4 km/h (3 Bft)
09.11.2013 02:30 9,4 C 7,2 C 91 % 1004,6 hPa 0,0 l/m 0 min 0 min 0,0 UV-I 0 W/m 20,6 km/h (4 Bft)
09.11.2013 02:32 9,4 C 7,8 C 91 % 1004,6 hPa 0,0 l/m 0 min 0 min 0,0 UV-I 0 W/m 18,0 km/h (3 Bft)
09.11.2013 02:34 9,4 C 7,8 C 91 % 1004,7 hPa 0,0 l/m 0 min 0 min 0,0 UV-I 0 W/m 15,4 km/h (3 Bft)
09.11.2013 02:36 9,4 C 7,8 C 90 % 1004,7 hPa 0,0 l/m 0 min 0 min 0,0 UV-I 0 W/m 20,6 km/h (4 Bft)
09.11.2013 02:38 9,4 C 7,8 C 90 % 1004,8 hPa 0,0 l/m 0 min 0 min 0,0 UV-I 0 W/m 15,4 km/h (3 Bft)
09.11.2013 02:40 9,4 C 7,8 C 90 % 1004,6 hPa 0,0 l/m 0 min 0 min 0,0 UV-I 0 W/m 23,2 km/h (4 Bft)
09.11.2013 02:42 9,5 C 7,8 C 90 % 1004,7 hPa 0,0 l/m 0 min 0 min 0,0 UV-I 0 W/m 18,0 km/h (3 Bft)
09.11.2013 02:44 9,5 C 7,8 C 90 % 1004,7 hPa 0,0 l/m 0 min 0 min 0,0 UV-I 0 W/m 23,2 km/h (4 Bft)
09.11.2013 02:46 9,5 C 7,8 C 90 % 1005,1 hPa 0,0 l/m 0 min 0 min 0,0 UV-I 0 W/m 18,0 km/h (3 Bft)
09.11.2013 02:48 9,5 C 7,8 C 90 % 1005,0 hPa 0,0 l/m 0 min 0 min 0,0 UV-I 0 W/m 23,2 km/h (4 Bft)
09.11.2013 02:50 9,5 C 7,8 C 90 % 1005,0 hPa 0,0 l/m 0 min 0 min 0,0 UV-I 0 W/m 23,2 km/h (4 Bft)
09.11.2013 02:52 9,5 C 7,8 C 90 % 1005,1 hPa 0,0 l/m 0 min 0 min 0,0 UV-I 0 W/m 23,2 km/h (4 Bft)
09.11.2013 02:54 9,5 C 7,8 C 90 % 1005,2 hPa 0,0 l/m 0 min 0 min 0,0 UV-I 0 W/m 28,3 km/h (4 Bft)
09.11.2013 02:56 9,4 C 7,8 C 90 % 1005,2 hPa 0,0 l/m 0 min 0 min 0,0 UV-I 0 W/m 18,0 km/h (3 Bft)
09.11.2013 02:58 9,4 C 7,8 C 90 % 1005,2 hPa 0,0 l/m 0 min 0 min 0,0 UV-I 0 W/m 18,0 km/h (3 Bft)
09.11.2013 03:00 9,4 C 7,8 C 90 % 1005,2 hPa 0,0 l/m 0 min 0 min 0,0 UV-I 0 W/m 15,4 km/h (3 Bft)
09.11.2013 03:02 9,4 C 7,8 C 90 % 1005,5 hPa 0,0 l/m 0 min 0 min 0,0 UV-I 0 W/m 23,2 km/h (4 Bft)
09.11.2013 03:04 9,4 C 7,8 C 90 % 1005,4 hPa 0,0 l/m 0 min 0 min 0,0 UV-I 0 W/m 23,2 km/h (4 Bft)
09.11.2013 03:06 9,4 C 7,8 C 90 % 1005,4 hPa 0,0 l/m 0 min 2 min 0,0 UV-I 0 W/m 10,3 km/h (2 Bft)
09.11.2013 03:08 9,4 C 7,8 C 90 % 1005,4 hPa 0,0 l/m 0 min 0 min 0,0 UV-I 0 W/m 20,6 km/h (4 Bft)
09.11.2013 03:10 9,4 C 7,8 C 90 % 1005,6 hPa 0,0 l/m 0 min 0 min 0,0 UV-I 0 W/m 25,7 km/h (4 Bft)
09.11.2013 03:12 9,4 C 7,8 C 90 % 1005,6 hPa 0,0 l/m 0 min 0 min 0,0 UV-I 0 W/m 33,5 km/h (5 Bft)
09.11.2013 03:14 9,4 C 7,8 C 90 % 1005,6 hPa 0,0 l/m 0 min 2 min 0,0 UV-I 0 W/m 20,6 km/h (4 Bft)
09.11.2013 03:16 9,4 C 7,8 C 90 % 1005,6 hPa 0,0 l/m 0 min 0 min 0,0 UV-I 0 W/m 18,0 km/h (3 Bft)
09.11.2013 03:18 9,4 C 7,8 C 90 % 1005,9 hPa 0,0 l/m 0 min 0 min 0,0 UV-I 0 W/m 20,6 km/h (4 Bft)
09.11.2013 03:20 9,4 C 7,8 C 90 % 1005,9 hPa 0,0 l/m 0 min 0 min 0,0 UV-I 0 W/m 18,0 km/h (3 Bft)
09.11.2013 03:22 9,4 C 7,8 C 90 % 1005,9 hPa 0,0 l/m 0 min 0 min 0,0 UV-I 0 W/m 38,6 km/h (5 Bft)
09.11.2013 03:24 9,4 C 7,8 C 90 % 1006,0 hPa 0,0 l/m 0 min 0 min 0,0 UV-I 0 W/m 25,7 km/h (4 Bft)
09.11.2013 03:26 9,4 C 7,8 C 90 % 1006,0 hPa 0,0 l/m 0 min 0 min 0,0 UV-I 0 W/m 18,0 km/h (3 Bft)
09.11.2013 03:28 9,4 C 7,8 C 90 % 1006,0 hPa 0,0 l/m 0 min 0 min 0,0 UV-I 0 W/m 10,3 km/h (2 Bft)
09.11.2013 03:30 9,4 C 7,8 C 90 % 1006,0 hPa 0,0 l/m 0 min 0 min 0,0 UV-I 0 W/m 12,9 km/h (3 Bft)
09.11.2013 03:32 9,4 C 7,8 C 90 % 1006,0 hPa 0,0 l/m 0 min 0 min 0,0 UV-I 0 W/m 20,6 km/h (4 Bft)
09.11.2013 03:34 9,4 C 7,8 C 90 % 1006,1 hPa 0,0 l/m 0 min 0 min 0,0 UV-I 0 W/m 18,0 km/h (3 Bft)
09.11.2013 03:36 9,4 C 7,8 C 90 % 1006,1 hPa 0,0 l/m 0 min 0 min 0,0 UV-I 0 W/m 18,0 km/h (3 Bft)
09.11.2013 03:38 9,4 C 7,8 C 90 % 1006,1 hPa 0,0 l/m 0 min 0 min 0,0 UV-I 0 W/m 28,3 km/h (4 Bft)
09.11.2013 03:40 9,4 C 7,8 C 90 % 1006,2 hPa 0,0 l/m 0 min 0 min 0,0 UV-I 0 W/m 15,4 km/h (3 Bft)
09.11.2013 03:42 9,3 C 7,8 C 90 % 1006,3 hPa 0,0 l/m 0 min 0 min 0,0 UV-I 0 W/m 25,7 km/h (4 Bft)
09.11.2013 03:44 9,3 C 7,8 C 90 % 1006,3 hPa 0,0 l/m 0 min 0 min 0,0 UV-I 0 W/m 36,0 km/h (5 Bft)
09.11.2013 03:46 9,3 C 7,8 C 89 % 1006,3 hPa 0,0 l/m 0 min 0 min 0,0 UV-I 0 W/m 15,4 km/h (3 Bft)
09.11.2013 03:48 9,3 C 7,8 C 89 % 1006,4 hPa 0,0 l/m 0 min 0 min 0,0 UV-I 0 W/m 10,3 km/h (2 Bft)
09.11.2013 03:50 9,3 C 7,8 C 89 % 1006,5 hPa 0,0 l/m 0 min 0 min 0,0 UV-I 0 W/m 18,0 km/h (3 Bft)
09.11.2013 03:52 9,3 C 7,8 C 89 % 1006,5 hPa 0,0 l/m 0 min 0 min 0,0 UV-I 0 W/m 15,4 km/h (3 Bft)
09.11.2013 03:54 9,3 C 7,8 C 89 % 1006,6 hPa 0,0 l/m 0 min 0 min 0,0 UV-I 0 W/m 7,7 km/h (2 Bft)
09.11.2013 03:56 9,3 C 7,8 C 89 % 1006,7 hPa 0,0 l/m 0 min 0 min 0,0 UV-I 0 W/m 20,6 km/h (4 Bft)
09.11.2013 03:58 9,3 C 7,8 C 89 % 1006,7 hPa 0,0 l/m 0 min 0 min 0,0 UV-I 0 W/m 25,7 km/h (4 Bft)
09.11.2013 04:00 9,3 C 7,8 C 89 % 1006,7 hPa 0,0 l/m 0 min 0 min 0,0 UV-I 0 W/m 12,9 km/h (3 Bft)
09.11.2013 04:05 9,2 C 7,8 C 89 % 1006,6 hPa 0,0 l/m 0 min 0 min 0,0 UV-I 0 W/m 12,9 km/h (3 Bft)
09.11.2013 04:06 9,2 C 7,8 C 89 % 1006,6 hPa 0,0 l/m 0 min 0 min 0,0 UV-I 0 W/m 23,2 km/h (4 Bft)
09.11.2013 04:08 9,2 C 7,8 C 89 % 1006,7 hPa 0,0 l/m 0 min 0 min 0,0 UV-I 0 W/m 28,3 km/h (4 Bft)
09.11.2013 04:10 9,2 C 7,8 C 89 % 1006,7 hPa 0,0 l/m 0 min 2 min 0,0 UV-I 0 W/m 23,2 km/h (4 Bft)
09.11.2013 04:12 9,2 C 7,8 C 92 % 1006,7 hPa 0,0 l/m 0 min 0 min 0,0 UV-I 0 W/m 20,6 km/h (4 Bft)
09.11.2013 04:14 9,2 C 7,8 C 92 % 1006,9 hPa 0,0 l/m 0 min 0 min 0,0 UV-I 0 W/m 33,5 km/h (5 Bft)
09.11.2013 04:16 9,1 C 7,8 C 88 % 1006,9 hPa 0,0 l/m 0 min 0 min 0,0 UV-I 0 W/m 20,6 km/h (4 Bft)
09.11.2013 04:18 9,1 C 7,8 C 89 % 1007,0 hPa 0,0 l/m 0 min 0 min 0,0 UV-I 0 W/m 28,3 km/h (4 Bft)
09.11.2013 04:20 9,1 C 7,8 C 88 % 1007,1 hPa 0,0 l/m 0 min 0 min 0,0 UV-I 0 W/m 20,6 km/h (4 Bft)
09.11.2013 04:22 9,1 C 7,2 C 88 % 1007,0 hPa 0,0 l/m 0 min 0 min 0,0 UV-I 0 W/m 18,0 km/h (3 Bft)
09.11.2013 04:24 9,1 C 7,2 C 88 % 1007,2 hPa 0,0 l/m 0 min 0 min 0,0 UV-I 0 W/m 18,0 km/h (3 Bft)
09.11.2013 04:26 9,0 C 7,2 C 88 % 1007,1 hPa 0,0 l/m 0 min 0 min 0,0 UV-I 0 W/m 15,4 km/h (3 Bft)
09.11.2013 04:28 9,0 C 7,2 C 88 % 1007,4 hPa 0,0 l/m 0 min 0 min 0,0 UV-I 0 W/m 28,3 km/h (4 Bft)
09.11.2013 04:30 8,9 C 7,2 C 88 % 1007,2 hPa 0,0 l/m 0 min 0 min 0,0 UV-I 0 W/m 18,0 km/h (3 Bft)
09.11.2013 04:32 8,9 C 7,2 C 88 % 1007,2 hPa 0,0 l/m 0 min 0 min 0,0 UV-I 0 W/m 10,3 km/h (2 Bft)
09.11.2013 04:34 8,9 C 7,2 C 88 % 1007,4 hPa 0,0 l/m 0 min 0 min 0,0 UV-I 0 W/m 41,2 km/h (6 Bft)
09.11.2013 04:36 8,9 C 7,2 C 88 % 1007,3 hPa 0,0 l/m 0 min 0 min 0,0 UV-I 0 W/m 12,9 km/h (3 Bft)
09.11.2013 04:38 8,9 C 7,2 C 88 % 1007,3 hPa 0,0 l/m 0 min 0 min 0,0 UV-I 0 W/m 18,0 km/h (3 Bft)
09.11.2013 04:40 8,8 C 7,2 C 88 % 1007,3 hPa 0,0 l/m 0 min 0 min 0,0 UV-I 0 W/m 12,9 km/h (3 Bft)
09.11.2013 04:42 8,8 C 7,2 C 88 % 1007,5 hPa 0,0 l/m 0 min 0 min 0,0 UV-I 0 W/m 28,3 km/h (4 Bft)
09.11.2013 04:44 8,8 C 7,2 C 88 % 1007,3 hPa 0,0 l/m 0 min 0 min 0,0 UV-I 0 W/m 18,0 km/h (3 Bft)
09.11.2013 04:46 8,7 C 7,2 C 88 % 1007,5 hPa 0,0 l/m 0 min 0 min 0,0 UV-I 0 W/m 25,7 km/h (4 Bft)
09.11.2013 04:48 8,7 C 7,2 C 87 % 1007,5 hPa 0,0 l/m 0 min 0 min 0,0 UV-I 0 W/m 7,7 km/h (2 Bft)
09.11.2013 04:50 8,7 C 7,2 C 88 % 1007,5 hPa 0,0 l/m 0 min 0 min 0,0 UV-I 0 W/m 25,7 km/h (4 Bft)
09.11.2013 04:52 8,7 C 7,2 C 88 % 1007,6 hPa 0,0 l/m 0 min 0 min 0,0 UV-I 0 W/m 15,4 km/h (3 Bft)
09.11.2013 04:54 8,7 C 7,2 C 87 % 1007,7 hPa 0,0 l/m 0 min 0 min 0,0 UV-I 0 W/m 20,6 km/h (4 Bft)
09.11.2013 04:56 8,6 C 7,2 C 87 % 1007,6 hPa 0,0 l/m 0 min 0 min 0,0 UV-I 0 W/m 20,6 km/h (4 Bft)
09.11.2013 04:58 8,6 C 7,2 C 87 % 1007,7 hPa 0,0 l/m 0 min 0 min 0,0 UV-I 0 W/m 25,7 km/h (4 Bft)
09.11.2013 05:00 8,6 C 7,2 C 87 % 1007,8 hPa 0,0 l/m 0 min 0 min 0,0 UV-I 0 W/m 15,4 km/h (3 Bft)
09.11.2013 05:02 8,6 C 7,2 C 87 % 1007,7 hPa 0,0 l/m 0 min 0 min 0,0 UV-I 0 W/m 10,3 km/h (2 Bft)
09.11.2013 05:04 8,6 C 7,2 C 87 % 1007,8 hPa 0,0 l/m 0 min 0 min 0,0 UV-I 0 W/m 10,3 km/h (2 Bft)
09.11.2013 05:06 8,5 C 7,2 C 87 % 1007,7 hPa 0,0 l/m 0 min 0 min 0,0 UV-I 0 W/m 23,2 km/h (4 Bft)
09.11.2013 05:08 8,5 C 7,2 C 87 % 1007,8 hPa 0,0 l/m 0 min 0 min 0,0 UV-I 0 W/m 18,0 km/h (3 Bft)
09.11.2013 05:10 8,5 C 6,7 C 87 % 1007,8 hPa 0,0 l/m 0 min 0 min 0,0 UV-I 0 W/m 20,6 km/h (4 Bft)
09.11.2013 05:12 8,4 C 6,7 C 87 % 1007,8 hPa 0,0 l/m 0 min 0 min 0,0 UV-I 0 W/m 12,9 km/h (3 Bft)
09.11.2013 05:14 8,4 C 7,2 C 87 % 1007,9 hPa 0,0 l/m 0 min 0 min 0,0 UV-I 0 W/m 15,4 km/h (3 Bft)
09.11.2013 05:16 8,4 C 7,2 C 87 % 1007,9 hPa 0,0 l/m 0 min 0 min 0,0 UV-I 0 W/m 10,3 km/h (2 Bft)
09.11.2013 05:18 8,4 C 7,2 C 87 % 1007,9 hPa 0,0 l/m 0 min 0 min 0,0 UV-I 0 W/m 20,6 km/h (4 Bft)
09.11.2013 05:20 8,4 C 7,2 C 87 % 1007,9 hPa 0,0 l/m 0 min 0 min 0,0 UV-I 0 W/m 15,4 km/h (3 Bft)
09.11.2013 05:22 8,4 C 7,2 C 87 % 1007,9 hPa 0,0 l/m 0 min 0 min 0,0 UV-I 0 W/m 7,7 km/h (2 Bft)
09.11.2013 05:24 8,4 C 7,2 C 87 % 1008,1 hPa 0,0 l/m 0 min 0 min 0,0 UV-I 0 W/m 10,3 km/h (2 Bft)
09.11.2013 05:26 8,4 C 7,2 C 87 % 1008,0 hPa 0,0 l/m 0 min 0 min 0,0 UV-I 0 W/m 10,3 km/h (2 Bft)
09.11.2013 05:28 8,4 C 7,2 C 87 % 1008,2 hPa 0,0 l/m 0 min 0 min 0,0 UV-I 0 W/m 15,4 km/h (3 Bft)
09.11.2013 05:30 8,4 C 7,2 C 87 % 1008,1 hPa 0,0 l/m 0 min 0 min 0,0 UV-I 0 W/m 15,4 km/h (3 Bft)
09.11.2013 05:32 8,4 C 7,2 C 87 % 1008,2 hPa 0,0 l/m 0 min 0 min 0,0 UV-I 0 W/m 15,4 km/h (3 Bft)
09.11.2013 05:34 8,4 C 7,2 C 87 % 1008,1 hPa 0,0 l/m 0 min 0 min 0,0 UV-I 0 W/m 10,3 km/h (2 Bft)
09.11.2013 05:36 8,4 C 7,2 C 87 % 1008,2 hPa 0,0 l/m 0 min 0 min 0,0 UV-I 0 W/m 12,9 km/h (3 Bft)
09.11.2013 05:38 8,4 C 7,2 C 87 % 1008,2 hPa 0,0 l/m 0 min 0 min 0,0 UV-I 0 W/m 18,0 km/h (3 Bft)
09.11.2013 05:40 8,4 C 7,2 C 87 % 1008,1 hPa 0,0 l/m 0 min 0 min 0,0 UV-I 0 W/m 15,4 km/h (3 Bft)
09.11.2013 05:42 8,3 C 7,2 C 87 % 1008,2 hPa 0,0 l/m 0 min 0 min 0,0 UV-I 0 W/m 10,3 km/h (2 Bft)
09.11.2013 05:44 8,3 C 7,2 C 87 % 1008,3 hPa 0,0 l/m 0 min 0 min 0,0 UV-I 0 W/m 20,6 km/h (4 Bft)
09.11.2013 05:46 8,3 C 7,2 C 87 % 1008,3 hPa 0,0 l/m 0 min 0 min 0,0 UV-I 0 W/m 12,9 km/h (3 Bft)
09.11.2013 05:48 8,3 C 7,2 C 87 % 1008,3 hPa 0,0 l/m 0 min 0 min 0,0 UV-I 0 W/m 12,9 km/h (3 Bft)
09.11.2013 05:50 8,3 C 7,2 C 87 % 1008,3 hPa 0,0 l/m 0 min 0 min 0,0 UV-I 0 W/m 28,3 km/h (4 Bft)
09.11.2013 05:52 8,3 C 7,2 C 87 % 1008,3 hPa 0,0 l/m 0 min 0 min 0,0 UV-I 0 W/m 15,4 km/h (3 Bft)
09.11.2013 05:54 8,3 C 7,2 C 87 % 1008,3 hPa 0,0 l/m 0 min 0 min 0,0 UV-I 0 W/m 20,6 km/h (4 Bft)
09.11.2013 05:56 8,3 C 6,7 C 88 % 1008,4 hPa 0,0 l/m 0 min 0 min 0,0 UV-I 0 W/m 5,1 km/h (1 Bft)
09.11.2013 05:58 8,3 C 6,7 C 88 % 1008,4 hPa 0,0 l/m 0 min 0 min 0,0 UV-I 0 W/m 12,9 km/h (3 Bft)
09.11.2013 06:00 8,3 C 6,7 C 88 % 1008,6 hPa 0,0 l/m 0 min 0 min 0,0 UV-I 0 W/m 12,9 km/h (3 Bft)
09.11.2013 06:02 8,2 C 6,7 C 88 % 1008,5 hPa 0,0 l/m 0 min 0 min 0,0 UV-I 0 W/m 15,4 km/h (3 Bft)
09.11.2013 06:06 8,2 C 6,7 C 88 % 1008,6 hPa 0,0 l/m 0 min 0 min 0,0 UV-I 0 W/m 25,7 km/h (4 Bft)
09.11.2013 06:08 8,2 C 6,7 C 88 % 1008,6 hPa 0,0 l/m 0 min 0 min 0,0 UV-I 0 W/m 10,3 km/h (2 Bft)
09.11.2013 06:10 8,2 C 6,7 C 88 % 1008,7 hPa 0,0 l/m 0 min 0 min 0,0 UV-I 0 W/m 20,6 km/h (4 Bft)
09.11.2013 06:12 8,2 C 6,7 C 88 % 1008,6 hPa 0,0 l/m 0 min 0 min 0,0 UV-I 0 W/m 5,1 km/h (1 Bft)
09.11.2013 06:14 8,2 C 6,7 C 88 % 1008,6 hPa 0,0 l/m 0 min 0 min 0,0 UV-I 0 W/m 18,0 km/h (3 Bft)
09.11.2013 06:16 8,1 C 6,7 C 88 % 1008,7 hPa 0,0 l/m 0 min 0 min 0,0 UV-I 0 W/m 20,6 km/h (4 Bft)
09.11.2013 06:18 8,1 C 6,7 C 88 % 1008,6 hPa 0,0 l/m 0 min 0 min 0,0 UV-I 0 W/m 10,3 km/h (2 Bft)
09.11.2013 06:20 8,1 C 6,7 C 88 % 1008,6 hPa 0,0 l/m 0 min 0 min 0,0 UV-I 0 W/m 28,3 km/h (4 Bft)
09.11.2013 06:22 8,1 C 6,7 C 89 % 1008,6 hPa 0,0 l/m 0 min 0 min 0,0 UV-I 0 W/m 23,2 km/h (4 Bft)
09.11.2013 06:24 8,1 C 6,7 C 89 % 1008,7 hPa 0,0 l/m 0 min 0 min 0,0 UV-I 0 W/m 10,3 km/h (2 Bft)
09.11.2013 06:26 8,1 C 6,7 C 89 % 1008,7 hPa 0,0 l/m 0 min 0 min 0,0 UV-I 0 W/m 15,4 km/h (3 Bft)
09.11.2013 06:28 8,0 C 6,7 C 89 % 1008,7 hPa 0,0 l/m 0 min 0 min 0,0 UV-I 0 W/m 15,4 km/h (3 Bft)
09.11.2013 06:30 8,0 C 6,7 C 89 % 1008,9 hPa 0,0 l/m 0 min 0 min 0,0 UV-I 0 W/m 15,4 km/h (3 Bft)
09.11.2013 06:32 7,9 C 6,7 C 89 % 1008,7 hPa 0,0 l/m 0 min 0 min 0,0 UV-I 0 W/m 7,7 km/h (2 Bft)
09.11.2013 06:34 7,9 C 6,7 C 89 % 1008,9 hPa 0,0 l/m 0 min 0 min 0,0 UV-I 0 W/m 15,4 km/h (3 Bft)
09.11.2013 06:36 7,9 C 6,7 C 89 % 1008,9 hPa 0,0 l/m 0 min 0 min 0,0 UV-I 0 W/m 25,7 km/h (4 Bft)
09.11.2013 06:38 7,9 C 6,1 C 89 % 1008,9 hPa 0,0 l/m 0 min 0 min 0,0 UV-I 0 W/m 12,9 km/h (3 Bft)
09.11.2013 06:40 7,8 C 6,1 C 89 % 1008,9 hPa 0,0 l/m 0 min 0 min 0,0 UV-I 0 W/m 5,1 km/h (1 Bft)
09.11.2013 06:42 7,8 C 6,1 C 89 % 1008,9 hPa 0,0 l/m 0 min 0 min 0,0 UV-I 0 W/m 10,3 km/h (2 Bft)
09.11.2013 06:44 7,8 C 6,1 C 89 % 1008,9 hPa 0,0 l/m 0 min 0 min 0,0 UV-I 0 W/m 12,9 km/h (3 Bft)
09.11.2013 06:46 7,7 C 6,1 C 89 % 1009,0 hPa 0,0 l/m 0 min 0 min 0,0 UV-I 0 W/m 7,7 km/h (2 Bft)
09.11.2013 06:48 7,7 C 6,1 C 89 % 1009,1 hPa 0,0 l/m 0 min 0 min 0,0 UV-I 0 W/m 10,3 km/h (2 Bft)
09.11.2013 06:50 7,7 C 6,1 C 89 % 1009,0 hPa 0,0 l/m 0 min 0 min 0,0 UV-I 0 W/m 18,0 km/h (3 Bft)
09.11.2013 06:52 7,7 C 6,1 C 89 % 1009,0 hPa 0,0 l/m 0 min 0 min 0,0 UV-I 0 W/m 20,6 km/h (4 Bft)
09.11.2013 06:54 7,6 C 6,1 C 89 % 1009,0 hPa 0,0 l/m 0 min 0 min 0,0 UV-I 0 W/m 7,7 km/h (2 Bft)
09.11.2013 06:56 7,6 C 6,1 C 89 % 1009,0 hPa 0,0 l/m 0 min 0 min 0,0 UV-I 0 W/m 12,9 km/h (3 Bft)
09.11.2013 06:58 7,6 C 6,1 C 89 % 1009,1 hPa 0,0 l/m 0 min 0 min 0,0 UV-I 0 W/m 7,7 km/h (2 Bft)
09.11.2013 07:00 7,6 C 6,1 C 89 % 1009,2 hPa 0,0 l/m 0 min 0 min 0,0 UV-I 0 W/m 15,4 km/h (3 Bft)
09.11.2013 07:02 7,6 C 6,1 C 89 % 1009,1 hPa 0,0 l/m 0 min 0 min 0,0 UV-I 0 W/m 23,2 km/h (4 Bft)
09.11.2013 07:04 7,6 C 6,1 C 90 % 1009,1 hPa 0,0 l/m 0 min 0 min 0,0 UV-I 0 W/m 28,3 km/h (4 Bft)
09.11.2013 07:06 7,5 C 6,1 C 90 % 1009,2 hPa 0,0 l/m 0 min 0 min 0,0 UV-I 0 W/m 18,0 km/h (3 Bft)
09.11.2013 07:08 7,5 C 6,1 C 90 % 1009,2 hPa 0,0 l/m 0 min 0 min 0,0 UV-I 0 W/m 10,3 km/h (2 Bft)
09.11.2013 07:10 7,5 C 6,1 C 90 % 1009,3 hPa 0,0 l/m 0 min 0 min 0,0 UV-I 0 W/m 18,0 km/h (3 Bft)
09.11.2013 07:12 7,5 C 6,1 C 90 % 1009,3 hPa 0,0 l/m 0 min 0 min 0,0 UV-I 0 W/m 18,0 km/h (3 Bft)
09.11.2013 07:14 7,5 C 6,1 C 90 % 1009,3 hPa 0,0 l/m 0 min 0 min 0,0 UV-I 0 W/m 18,0 km/h (3 Bft)
09.11.2013 07:16 7,5 C 6,1 C 90 % 1009,3 hPa 0,0 l/m 0 min 0 min 0,0 UV-I 0 W/m 10,3 km/h (2 Bft)
09.11.2013 07:18 7,5 C 6,1 C 90 % 1009,3 hPa 0,0 l/m 0 min 0 min 0,0 UV-I 0 W/m 12,9 km/h (3 Bft)
09.11.2013 07:20 7,5 C 6,1 C 90 % 1009,4 hPa 0,0 l/m 0 min 0 min 0,0 UV-I 0 W/m 15,4 km/h (3 Bft)
09.11.2013 07:22 7,5 C 6,1 C 90 % 1009,3 hPa 0,0 l/m 0 min 0 min 0,0 UV-I 0 W/m 10,3 km/h (2 Bft)
09.11.2013 07:24 7,5 C 6,1 C 90 % 1009,3 hPa 0,0 l/m 0 min 0 min 0,0 UV-I 0 W/m 20,6 km/h (4 Bft)
09.11.2013 07:26 7,5 C 6,1 C 90 % 1009,4 hPa 0,0 l/m 0 min 0 min 0,0 UV-I 0 W/m 12,9 km/h (3 Bft)
09.11.2013 07:28 7,5 C 6,1 C 90 % 1009,4 hPa 0,0 l/m 0 min 0 min 0,0 UV-I 0 W/m 7,7 km/h (2 Bft)
09.11.2013 07:30 7,5 C 6,1 C 90 % 1009,4 hPa 0,0 l/m 0 min 0 min 0,0 UV-I 0 W/m 12,9 km/h (3 Bft)
09.11.2013 07:32 7,6 C 6,1 C 90 % 1009,4 hPa 0,0 l/m 0 min 0 min 0,0 UV-I 0 W/m 10,3 km/h (2 Bft)
09.11.2013 07:34 7,6 C 6,7 C 90 % 1009,5 hPa 0,0 l/m 0 min 0 min 0,0 UV-I 0 W/m 10,3 km/h (2 Bft)
09.11.2013 07:36 7,6 C 6,7 C 90 % 1009,4 hPa 0,0 l/m 0 min 0 min 0,0 UV-I 0 W/m 5,1 km/h (1 Bft)
09.11.2013 07:38 7,6 C 6,7 C 90 % 1009,5 hPa 0,0 l/m 0 min 0 min 0,0 UV-I 0 W/m 10,3 km/h (2 Bft)
09.11.2013 07:40 7,6 C 6,7 C 90 % 1009,5 hPa 0,0 l/m 0 min 0 min 0,0 UV-I 0 W/m 0,0 km/h (0 Bft)
09.11.2013 07:42 7,6 C 6,7 C 90 % 1009,5 hPa 0,0 l/m 0 min 0 min 0,0 UV-I 0 W/m 5,1 km/h (1 Bft)
09.11.2013 07:44 7,6 C 6,7 C 90 % 1009,5 hPa 0,0 l/m 0 min 0 min 0,0 UV-I 5 W/m 12,9 km/h (3 Bft)
09.11.2013 07:46 7,7 C 6,7 C 90 % 1009,5 hPa 0,0 l/m 0 min 0 min 0,0 UV-I 5 W/m 0,0 km/h (0 Bft)
09.11.2013 07:48 7,7 C 6,1 C 90 % 1009,5 hPa 0,0 l/m 0 min 0 min 0,0 UV-I 7 W/m 18,0 km/h (3 Bft)
09.11.2013 07:50 7,6 C 6,1 C 90 % 1009,6 hPa 0,0 l/m 0 min 0 min 0,0 UV-I 7 W/m 15,4 km/h (3 Bft)
09.11.2013 07:52 7,6 C 6,1 C 90 % 1009,5 hPa 0,0 l/m 0 min 0 min 0,0 UV-I 9 W/m 18,0 km/h (3 Bft)
09.11.2013 07:54 7,6 C 6,1 C 90 % 1009,5 hPa 0,0 l/m 0 min 0 min 0,0 UV-I 9 W/m 18,0 km/h (3 Bft)
09.11.2013 07:56 7,6 C 6,1 C 90 % 1009,6 hPa 0,0 l/m 0 min 0 min 0,0 UV-I 11 W/m 18,0 km/h (3 Bft)
09.11.2013 07:58 7,6 C 6,1 C 90 % 1009,6 hPa 0,0 l/m 0 min 0 min 0,0 UV-I 12 W/m 12,9 km/h (3 Bft)
09.11.2013 08:00 7,6 C 6,1 C 90 % 1009,6 hPa 0,0 l/m 0 min 0 min 0,0 UV-I 16 W/m 18,0 km/h (3 Bft)
09.11.2013 08:02 7,6 C 6,1 C 90 % 1009,7 hPa 0,0 l/m 0 min 0 min 0,0 UV-I 14 W/m 18,0 km/h (3 Bft)
09.11.2013 08:04 7,6 C 6,1 C 89 % 1009,7 hPa 0,0 l/m 0 min 0 min 0,0 UV-I 14 W/m 25,7 km/h (4 Bft)
09.11.2013 08:06 7,6 C 6,1 C 89 % 1009,7 hPa 0,0 l/m 0 min 0 min 0,0 UV-I 14 W/m 25,7 km/h (4 Bft)
09.11.2013 08:08 7,6 C 6,1 C 89 % 1009,8 hPa 0,0 l/m 0 min 0 min 0,0 UV-I 16 W/m 18,0 km/h (3 Bft)
09.11.2013 08:10 7,6 C 6,1 C 89 % 1009,8 hPa 0,0 l/m 0 min 0 min 0,0 UV-I 16 W/m 15,4 km/h (3 Bft)
09.11.2013 08:12 7,6 C 6,1 C 89 % 1009,8 hPa 0,0 l/m 0 min 0 min 0,0 UV-I 18 W/m 7,7 km/h (2 Bft)
09.11.2013 08:14 7,6 C 6,1 C 89 % 1009,9 hPa 0,0 l/m 0 min 0 min 0,0 UV-I 18 W/m 15,4 km/h (3 Bft)
09.11.2013 08:16 7,6 C 6,1 C 89 % 1009,9 hPa 0,0 l/m 0 min 0 min 0,0 UV-I 19 W/m 7,7 km/h (2 Bft)
09.11.2013 08:18 7,6 C 6,1 C 89 % 1010,0 hPa 0,0 l/m 0 min 0 min 0,0 UV-I 19 W/m 15,4 km/h (3 Bft)
09.11.2013 08:20 7,6 C 6,1 C 89 % 1009,9 hPa 0,0 l/m 0 min 0 min 0,0 UV-I 19 W/m 12,9 km/h (3 Bft)
09.11.2013 08:22 7,6 C 6,1 C 89 % 1010,0 hPa 0,0 l/m 0 min 0 min 0,0 UV-I 19 W/m 15,4 km/h (3 Bft)
09.11.2013 08:24 7,6 C 6,1 C 89 % 1010,2 hPa 0,0 l/m 0 min 0 min 0,0 UV-I 21 W/m 25,7 km/h (4 Bft)
09.11.2013 08:26 7,6 C 6,1 C 89 % 1010,0 hPa 0,0 l/m 0 min 0 min 0,0 UV-I 21 W/m 2,6 km/h (1 Bft)
09.11.2013 08:28 7,6 C 6,1 C 89 % 1010,1 hPa 0,0 l/m 0 min 0 min 0,0 UV-I 21 W/m 15,4 km/h (3 Bft)
09.11.2013 08:30 7,6 C 6,1 C 89 % 1010,1 hPa 0,0 l/m 0 min 0 min 0,0 UV-I 23 W/m 12,9 km/h (3 Bft)
09.11.2013 08:32 7,6 C 6,1 C 89 % 1010,1 hPa 0,0 l/m 0 min 0 min 0,0 UV-I 23 W/m 7,7 km/h (2 Bft)
09.11.2013 08:34 7,5 C 6,1 C 89 % 1010,1 hPa 0,0 l/m 0 min 0 min 0,0 UV-I 23 W/m 2,6 km/h (1 Bft)
09.11.2013 08:36 7,5 C 6,1 C 89 % 1010,2 hPa 0,0 l/m 0 min 0 min 0,0 UV-I 28 W/m 7,7 km/h (2 Bft)
09.11.2013 08:38 7,5 C 6,1 C 89 % 1010,2 hPa 0,0 l/m 0 min 0 min 0,0 UV-I 28 W/m 30,9 km/h (5 Bft)
09.11.2013 08:40 7,5 C 6,1 C 88 % 1010,2 hPa 0,0 l/m 0 min 0 min 0,0 UV-I 28 W/m 23,2 km/h (4 Bft)
09.11.2013 08:42 7,5 C 6,1 C 88 % 1010,2 hPa 0,0 l/m 0 min 0 min 0,0 UV-I 26 W/m 15,4 km/h (3 Bft)
09.11.2013 08:44 7,6 C 6,1 C 88 % 1010,3 hPa 0,0 l/m 0 min 0 min 0,0 UV-I 28 W/m 28,3 km/h (4 Bft)
09.11.2013 08:46 7,6 C 6,1 C 89 % 1010,3 hPa 0,0 l/m 0 min 0 min 0,0 UV-I 32 W/m 18,0 km/h (3 Bft)
09.11.2013 08:48 7,6 C 6,1 C 88 % 1010,3 hPa 0,0 l/m 0 min 0 min 0,0 UV-I 28 W/m 10,3 km/h (2 Bft)
09.11.2013 08:50 7,6 C 6,1 C 88 % 1010,3 hPa 0,0 l/m 0 min 0 min 0,0 UV-I 28 W/m 25,7 km/h (4 Bft)
09.11.2013 08:52 7,6 C 6,1 C 88 % 1010,3 hPa 0,0 l/m 0 min 0 min 0,0 UV-I 28 W/m 18,0 km/h (3 Bft)
09.11.2013 08:54 7,6 C 6,1 C 88 % 1010,3 hPa 0,0 l/m 0 min 0 min 0,0 UV-I 28 W/m 23,2 km/h (4 Bft)
09.11.2013 08:56 7,6 C 6,1 C 88 % 1010,4 hPa 0,0 l/m 0 min 0 min 0,0 UV-I 30 W/m 12,9 km/h (3 Bft)
09.11.2013 08:58 7,6 C 6,1 C 88 % 1010,4 hPa 0,0 l/m 0 min 0 min 0,0 UV-I 33 W/m 10,3 km/h (2 Bft)
09.11.2013 09:00 7,6 C 6,1 C 88 % 1010,4 hPa 0,0 l/m 0 min 0 min 0,0 UV-I 74 W/m 15,4 km/h (3 Bft)
09.11.2013 09:02 7,7 C 6,7 C 88 % 1010,3 hPa 0,0 l/m 0 min 0 min 0,0 UV-I 90 W/m 15,4 km/h (3 Bft)
09.11.2013 09:04 7,7 C 6,7 C 88 % 1010,4 hPa 0,0 l/m 0 min 0 min 0,0 UV-I 93 W/m 28,3 km/h (4 Bft)
09.11.2013 09:06 7,7 C 6,7 C 88 % 1010,4 hPa 0,0 l/m 2 min 0 min 0,0 UV-I 98 W/m 10,3 km/h (2 Bft)
09.11.2013 09:08 7,7 C 6,7 C 88 % 1010,5 hPa 0,0 l/m 2 min 0 min 0,0 UV-I 104 W/m 7,7 km/h (2 Bft)
09.11.2013 09:10 7,7 C 6,7 C 88 % 1010,4 hPa 0,0 l/m 2 min 0 min 0,0 UV-I 105 W/m 10,3 km/h (2 Bft)
09.11.2013 09:12 7,7 C 6,7 C 88 % 1010,4 hPa 0,0 l/m 2 min 0 min 0,0 UV-I 111 W/m 28,3 km/h (4 Bft)
09.11.2013 09:14 7,7 C 6,7 C 88 % 1010,5 hPa 0,0 l/m 2 min 0 min 0,0 UV-I 114 W/m 10,3 km/h (2 Bft)
09.11.2013 09:16 7,7 C 6,7 C 88 % 1010,5 hPa 0,0 l/m 2 min 0 min 0,0 UV-I 118 W/m 7,7 km/h (2 Bft)
09.11.2013 09:18 7,7 C 6,7 C 88 % 1010,4 hPa 0,0 l/m 2 min 0 min 0,0 UV-I 121 W/m 28,3 km/h (4 Bft)
09.11.2013 09:20 7,7 C 6,7 C 88 % 1010,4 hPa 0,0 l/m 2 min 0 min 0,0 UV-I 125 W/m 15,4 km/h (3 Bft)
09.11.2013 09:22 7,7 C 6,7 C 88 % 1010,4 hPa 0,0 l/m 2 min 0 min 0,0 UV-I 128 W/m 23,2 km/h (4 Bft)
09.11.2013 09:24 7,7 C 6,7 C 88 % 1010,5 hPa 0,0 l/m 2 min 0 min 0,0 UV-I 134 W/m 20,6 km/h (4 Bft)
09.11.2013 09:26 7,8 C 6,7 C 88 % 1010,4 hPa 0,0 l/m 2 min 0 min 0,0 UV-I 137 W/m 20,6 km/h (4 Bft)
09.11.2013 09:28 7,8 C 6,7 C 88 % 1010,5 hPa 0,0 l/m 2 min 0 min 0,0 UV-I 142 W/m 25,7 km/h (4 Bft)
09.11.2013 09:30 7,8 C 6,7 C 88 % 1010,6 hPa 0,0 l/m 2 min 0 min 0,0 UV-I 148 W/m 12,9 km/h (3 Bft)
09.11.2013 09:32 7,8 C 6,7 C 88 % 1010,6 hPa 0,0 l/m 2 min 0 min 0,0 UV-I 149 W/m 28,3 km/h (4 Bft)
09.11.2013 09:34 7,9 C 6,7 C 88 % 1010,4 hPa 0,0 l/m 2 min 0 min 0,0 UV-I 153 W/m 10,3 km/h (2 Bft)
09.11.2013 09:36 7,9 C 6,7 C 88 % 1010,5 hPa 0,0 l/m 2 min 0 min 0,0 UV-I 160 W/m 15,4 km/h (3 Bft)
09.11.2013 09:38 7,9 C 6,7 C 88 % 1010,6 hPa 0,0 l/m 2 min 0 min 0,0 UV-I 163 W/m 23,2 km/h (4 Bft)
09.11.2013 09:40 7,9 C 6,7 C 88 % 1010,6 hPa 0,0 l/m 2 min 0 min 0,0 UV-I 169 W/m 20,6 km/h (4 Bft)
09.11.2013 09:42 8,0 C 6,7 C 88 % 1010,6 hPa 0,0 l/m 2 min 0 min 0,0 UV-I 144 W/m 18,0 km/h (3 Bft)
09.11.2013 09:44 8,1 C 6,7 C 88 % 1010,8 hPa 0,0 l/m 2 min 0 min 0,0 UV-I 183 W/m 20,6 km/h (4 Bft)
09.11.2013 09:46 8,1 C 6,7 C 87 % 1010,6 hPa 0,0 l/m 2 min 0 min 0,0 UV-I 200 W/m 15,4 km/h (3 Bft)
09.11.2013 09:48 8,1 C 6,7 C 88 % 1010,6 hPa 0,0 l/m 2 min 0 min 0,0 UV-I 199 W/m 20,6 km/h (4 Bft)
09.11.2013 09:50 8,2 C 7,2 C 87 % 1010,6 hPa 0,0 l/m 2 min 0 min 0,0 UV-I 200 W/m 18,0 km/h (3 Bft)
09.11.2013 09:52 8,2 C 7,2 C 87 % 1010,7 hPa 0,0 l/m 2 min 0 min 0,0 UV-I 199 W/m 25,7 km/h (4 Bft)
09.11.2013 09:54 8,2 C 7,2 C 87 % 1010,8 hPa 0,0 l/m 2 min 0 min 0,0 UV-I 214 W/m 30,9 km/h (5 Bft)
09.11.2013 09:56 8,3 C 7,2 C 87 % 1010,7 hPa 0,0 l/m 2 min 0 min 0,0 UV-I 204 W/m 12,9 km/h (3 Bft)
09.11.2013 09:58 8,3 C 7,2 C 87 % 1010,9 hPa 0,0 l/m 2 min 0 min 0,0 UV-I 213 W/m 18,0 km/h (3 Bft)
09.11.2013 10:00 8,4 C 7,2 C 87 % 1010,9 hPa 0,0 l/m 2 min 0 min 0,0 UV-I 234 W/m 15,4 km/h (3 Bft)
09.11.2013 10:02 8,4 C 7,2 C 87 % 1010,8 hPa 0,0 l/m 2 min 0 min 0,0 UV-I 241 W/m 20,6 km/h (4 Bft)
09.11.2013 10:04 8,5 C 7,2 C 87 % 1010,9 hPa 0,0 l/m 2 min 0 min 0,0 UV-I 232 W/m 15,4 km/h (3 Bft)
09.11.2013 10:06 8,6 C 7,2 C 87 % 1010,9 hPa 0,0 l/m 2 min 0 min 0,0 UV-I 232 W/m 25,7 km/h (4 Bft)
09.11.2013 10:08 8,6 C 7,2 C 87 % 1010,8 hPa 0,0 l/m 2 min 0 min 0,0 UV-I 236 W/m 7,7 km/h (2 Bft)
09.11.2013 10:10 8,7 C 7,2 C 87 % 1010,8 hPa 0,0 l/m 2 min 0 min 0,0 UV-I 225 W/m 12,9 km/h (3 Bft)
09.11.2013 10:12 8,7 C 7,2 C 87 % 1010,8 hPa 0,0 l/m 2 min 0 min 0,0 UV-I 230 W/m 15,4 km/h (3 Bft)
09.11.2013 10:14 8,7 C 7,2 C 86 % 1010,9 hPa 0,0 l/m 2 min 0 min 0,0 UV-I 241 W/m 23,2 km/h (4 Bft)
09.11.2013 10:16 8,7 C 7,2 C 86 % 1010,8 hPa 0,0 l/m 2 min 0 min 0,0 UV-I 193 W/m 5,1 km/h (1 Bft)
09.11.2013 10:18 8,8 C 7,2 C 86 % 1010,9 hPa 0,0 l/m 2 min 0 min 0,0 UV-I 248 W/m 10,3 km/h (2 Bft)
09.11.2013 10:20 8,8 C 7,2 C 86 % 1010,8 hPa 0,0 l/m 2 min 0 min 0,0 UV-I 243 W/m 15,4 km/h (3 Bft)
09.11.2013 10:22 8,9 C 7,2 C 85 % 1010,8 hPa 0,0 l/m 2 min 0 min 0,0 UV-I 246 W/m 20,6 km/h (4 Bft)
09.11.2013 10:24 8,9 C 7,2 C 85 % 1010,8 hPa 0,0 l/m 2 min 0 min 0,0 UV-I 250 W/m 23,2 km/h (4 Bft)
09.11.2013 10:26 8,9 C 7,8 C 85 % 1010,8 hPa 0,0 l/m 2 min 0 min 0,0 UV-I 253 W/m 25,7 km/h (4 Bft)
09.11.2013 10:28 9,0 C 7,8 C 85 % 1010,8 hPa 0,0 l/m 2 min 0 min 0,0 UV-I 267 W/m 20,6 km/h (4 Bft)
09.11.2013 10:30 9,1 C 7,8 C 85 % 1010,9 hPa 0,0 l/m 2 min 0 min 0,0 UV-I 255 W/m 10,3 km/h (2 Bft)
09.11.2013 10:32 9,1 C 7,8 C 85 % 1010,7 hPa 0,0 l/m 2 min 0 min 0,0 UV-I 262 W/m 7,7 km/h (2 Bft)
09.11.2013 10:34 9,1 C 7,8 C 84 % 1010,7 hPa 0,0 l/m 2 min 0 min 0,0 UV-I 223 W/m 10,3 km/h (2 Bft)
09.11.2013 10:36 9,2 C 7,8 C 84 % 1010,8 hPa 0,0 l/m 2 min 0 min 0,0 UV-I 269 W/m 23,2 km/h (4 Bft)
09.11.2013 10:38 9,2 C 7,8 C 83 % 1010,7 hPa 0,0 l/m 2 min 0 min 0,0 UV-I 276 W/m 18,0 km/h (3 Bft)
09.11.2013 10:40 9,2 C 7,8 C 83 % 1010,8 hPa 0,0 l/m 2 min 0 min 0,0 UV-I 288 W/m 12,9 km/h (3 Bft)
09.11.2013 10:42 9,2 C 7,8 C 83 % 1010,7 hPa 0,0 l/m 2 min 0 min 0,0 UV-I 269 W/m 25,7 km/h (4 Bft)
09.11.2013 10:44 9,3 C 7,8 C 83 % 1010,8 hPa 0,0 l/m 2 min 0 min 0,0 UV-I 297 W/m 7,7 km/h (2 Bft)
09.11.2013 10:46 9,3 C 7,8 C 84 % 1010,9 hPa 0,0 l/m 2 min 0 min 0,0 UV-I 288 W/m 15,4 km/h (3 Bft)
09.11.2013 10:48 9,4 C 7,8 C 83 % 1010,9 hPa 0,0 l/m 2 min 0 min 0,0 UV-I 309 W/m 18,0 km/h (3 Bft)
09.11.2013 10:50 9,5 C 7,8 C 83 % 1011,0 hPa 0,0 l/m 2 min 0 min 0,0 UV-I 320 W/m 15,4 km/h (3 Bft)
09.11.2013 10:52 9,5 C 7,8 C 82 % 1011,0 hPa 0,0 l/m 2 min 0 min 0,0 UV-I 294 W/m 7,7 km/h (2 Bft)
09.11.2013 10:54 9,5 C 8,3 C 83 % 1010,9 hPa 0,0 l/m 2 min 0 min 0,0 UV-I 290 W/m 10,3 km/h (2 Bft)
09.11.2013 10:56 9,5 C 8,3 C 82 % 1010,9 hPa 0,0 l/m 2 min 0 min 0,0 UV-I 302 W/m 12,9 km/h (3 Bft)
09.11.2013 10:58 9,5 C 8,3 C 82 % 1010,9 hPa 0,0 l/m 2 min 0 min 0,0 UV-I 318 W/m 23,2 km/h (4 Bft)
09.11.2013 11:00 9,6 C 8,3 C 83 % 1010,9 hPa 0,0 l/m 2 min 0 min 0,0 UV-I 330 W/m 7,7 km/h (2 Bft)
09.11.2013 11:02 9,7 C 8,3 C 82 % 1010,8 hPa 0,0 l/m 2 min 0 min 0,0 UV-I 329 W/m 12,9 km/h (3 Bft)
09.11.2013 11:04 9,7 C 8,3 C 82 % 1010,9 hPa 0,0 l/m 2 min 0 min 0,0 UV-I 378 W/m 18,0 km/h (3 Bft)
09.11.2013 11:06 9,7 C 8,3 C 81 % 1010,9 hPa 0,0 l/m 2 min 0 min 0,0 UV-I 213 W/m 12,9 km/h (3 Bft)
09.11.2013 11:08 9,7 C 8,3 C 82 % 1010,9 hPa 0,0 l/m 2 min 0 min 0,0 UV-I 330 W/m 12,9 km/h (3 Bft)
09.11.2013 11:10 9,7 C 8,3 C 82 % 1010,9 hPa 0,0 l/m 2 min 0 min 0,0 UV-I 323 W/m 10,3 km/h (2 Bft)
09.11.2013 11:12 9,8 C 8,3 C 82 % 1010,9 hPa 0,0 l/m 2 min 0 min 0,0 UV-I 338 W/m 12,9 km/h (3 Bft)
09.11.2013 11:14 9,8 C 8,3 C 81 % 1010,9 hPa 0,0 l/m 2 min 0 min 0,0 UV-I 338 W/m 15,4 km/h (3 Bft)
09.11.2013 11:16 9,9 C 8,9 C 82 % 1010,9 hPa 0,0 l/m 2 min 0 min 0,0 UV-I 348 W/m 10,3 km/h (2 Bft)
09.11.2013 11:18 9,8 C 8,3 C 81 % 1010,9 hPa 0,0 l/m 2 min 0 min 0,0 UV-I 348 W/m 18,0 km/h (3 Bft)
09.11.2013 11:20 9,8 C 8,9 C 81 % 1010,8 hPa 0,0 l/m 2 min 0 min 0,0 UV-I 376 W/m 25,7 km/h (4 Bft)
09.11.2013 11:22 9,9 C 8,9 C 80 % 1010,8 hPa 0,0 l/m 2 min 0 min 0,0 UV-I 376 W/m 28,3 km/h (4 Bft)
09.11.2013 11:24 9,8 C 8,9 C 80 % 1010,7 hPa 0,0 l/m 2 min 0 min 0,0 UV-I 297 W/m 10,3 km/h (2 Bft)
09.11.2013 11:26 9,8 C 8,9 C 80 % 1010,7 hPa 0,0 l/m 2 min 0 min 0,0 UV-I 381 W/m 33,5 km/h (5 Bft)
09.11.2013 11:28 9,8 C 8,9 C 80 % 1010,7 hPa 0,0 l/m 2 min 0 min 0,0 UV-I 381 W/m 23,2 km/h (4 Bft)
09.11.2013 11:30 9,8 C 8,9 C 80 % 1010,7 hPa 0,0 l/m 2 min 0 min 0,0 UV-I 381 W/m 10,3 km/h (2 Bft)
09.11.2013 11:32 9,9 C 8,9 C 80 % 1010,8 hPa 0,0 l/m 2 min 0 min 0,0 UV-I 376 W/m 20,6 km/h (4 Bft)
09.11.2013 11:34 9,9 C 8,9 C 80 % 1010,8 hPa 0,0 l/m 2 min 0 min 0,0 UV-I 394 W/m 23,2 km/h (4 Bft)
09.11.2013 11:36 9,9 C 8,9 C 79 % 1010,7 hPa 0,0 l/m 2 min 0 min 0,0 UV-I 394 W/m 20,6 km/h (4 Bft)
09.11.2013 11:38 9,9 C 8,9 C 79 % 1010,8 hPa 0,0 l/m 0 min 0 min 0,0 UV-I 120 W/m 20,6 km/h (4 Bft)
09.11.2013 11:40 9,8 C 8,9 C 80 % 1010,7 hPa 0,0 l/m 0 min 0 min 0,0 UV-I 134 W/m 20,6 km/h (4 Bft)
09.11.2013 11:42 9,7 C 8,9 C 79 % 1010,8 hPa 0,0 l/m 0 min 0 min 0,0 UV-I 148 W/m 18,0 km/h (3 Bft)
09.11.2013 11:44 9,7 C 8,3 C 80 % 1010,7 hPa 0,0 l/m 0 min 0 min 0,0 UV-I 139 W/m 20,6 km/h (4 Bft)
09.11.2013 11:46 9,6 C 8,3 C 80 % 1010,8 hPa 0,0 l/m 0 min 0 min 0,0 UV-I 186 W/m 25,7 km/h (4 Bft)
09.11.2013 11:48 9,6 C 8,9 C 80 % 1010,8 hPa 0,0 l/m 2 min 0 min 0,0 UV-I 241 W/m 25,7 km/h (4 Bft)
09.11.2013 11:50 9,6 C 8,9 C 80 % 1010,7 hPa 0,0 l/m 0 min 0 min 0,0 UV-I 193 W/m 12,9 km/h (3 Bft)
09.11.2013 11:52 9,6 C 8,9 C 81 % 1010,7 hPa 0,0 l/m 2 min 0 min 0,0 UV-I 232 W/m 20,6 km/h (4 Bft)
09.11.2013 11:54 9,7 C 8,9 C 81 % 1010,7 hPa 0,0 l/m 2 min 0 min 0,0 UV-I 232 W/m 23,2 km/h (4 Bft)
09.11.2013 11:56 9,8 C 8,9 C 81 % 1010,6 hPa 0,0 l/m 0 min 0 min 0,0 UV-I 190 W/m 12,9 km/h (3 Bft)
09.11.2013 11:58 9,8 C 8,9 C 80 % 1010,6 hPa 0,0 l/m 0 min 0 min 0,0 UV-I 179 W/m 12,9 km/h (3 Bft)
09.11.2013 12:00 9,9 C 9,4 C 80 % 1010,6 hPa 0,0 l/m 2 min 0 min 0,0 UV-I 394 W/m 25,7 km/h (4 Bft)
09.11.2013 12:02 10,0 C 9,4 C 79 % 1010,5 hPa 0,0 l/m 2 min 0 min 0,0 UV-I 220 W/m 23,2 km/h (4 Bft)
09.11.2013 12:06 10,1 C 9,4 C 79 % 1010,6 hPa 0,0 l/m 2 min 0 min 0,0 UV-I 471 W/m 23,2 km/h (4 Bft)
09.11.2013 12:08 10,2 C 9,4 C 79 % 1010,6 hPa 0,0 l/m 2 min 0 min 0,0 UV-I 471 W/m 18,0 km/h (3 Bft)
09.11.2013 12:10 10,2 C 9,4 C 79 % 1010,5 hPa 0,0 l/m 0 min 0 min 0,0 UV-I 206 W/m 25,7 km/h (4 Bft)
09.11.2013 12:12 10,2 C 9,4 C 79 % 1010,5 hPa 0,0 l/m 0 min 0 min 0,0 UV-I 144 W/m 12,9 km/h (3 Bft)
09.11.2013 12:14 10,3 C 9,4 C 79 % 1010,5 hPa 0,0 l/m 2 min 0 min 0,0 UV-I 381 W/m 10,3 km/h (2 Bft)
09.11.2013 12:16 10,4 C 9,4 C 78 % 1010,4 hPa 0,0 l/m 2 min 0 min 0,0 UV-I 383 W/m 5,1 km/h (1 Bft)
09.11.2013 12:18 10,5 C 9,4 C 77 % 1010,5 hPa 0,0 l/m 2 min 0 min 0,0 UV-I 380 W/m 20,6 km/h (4 Bft)
09.11.2013 12:20 10,4 C 9,4 C 77 % 1010,4 hPa 0,0 l/m 0 min 0 min 0,0 UV-I 134 W/m 23,2 km/h (4 Bft)
09.11.2013 12:22 10,4 C 9,4 C 77 % 1010,4 hPa 0,0 l/m 2 min 0 min 0,0 UV-I 396 W/m 28,3 km/h (4 Bft)
09.11.2013 12:24 10,4 C 9,4 C 77 % 1010,4 hPa 0,0 l/m 2 min 0 min 0,0 UV-I 364 W/m 15,4 km/h (3 Bft)
09.11.2013 12:26 10,4 C 9,4 C 77 % 1010,3 hPa 0,0 l/m 2 min 0 min 0,0 UV-I 359 W/m 7,7 km/h (2 Bft)
09.11.2013 12:28 10,6 C 9,4 C 77 % 1010,3 hPa 0,0 l/m 2 min 0 min 0,0 UV-I 383 W/m 25,7 km/h (4 Bft)
09.11.2013 12:30 10,6 C 9,4 C 76 % 1010,4 hPa 0,0 l/m 2 min 0 min 0,0 UV-I 364 W/m 20,6 km/h (4 Bft)
09.11.2013 12:32 10,5 C 9,4 C 76 % 1010,3 hPa 0,0 l/m 2 min 0 min 0,0 UV-I 371 W/m 30,9 km/h (5 Bft)
09.11.2013 12:34 10,4 C 9,4 C 76 % 1010,2 hPa 0,0 l/m 2 min 0 min 0,0 UV-I 385 W/m 23,2 km/h (4 Bft)
09.11.2013 12:36 10,5 C 9,4 C 76 % 1010,2 hPa 0,0 l/m 2 min 0 min 0,0 UV-I 406 W/m 23,2 km/h (4 Bft)
09.11.2013 12:38 10,6 C 9,4 C 76 % 1010,3 hPa 0,0 l/m 2 min 0 min 0,0 UV-I 371 W/m 10,3 km/h (2 Bft)
09.11.2013 12:40 10,7 C 9,4 C 76 % 1010,3 hPa 0,0 l/m 2 min 0 min 0,0 UV-I 378 W/m 25,7 km/h (4 Bft)
09.11.2013 12:42 10,6 C 9,4 C 76 % 1010,3 hPa 0,0 l/m 2 min 0 min 0,0 UV-I 378 W/m 30,9 km/h (5 Bft)
09.11.2013 12:44 10,4 C 8,9 C 76 % 1010,4 hPa 0,0 l/m 0 min 0 min 0,0 UV-I 98 W/m 10,3 km/h (2 Bft)
09.11.2013 12:46 10,2 C 8,9 C 77 % 1010,3 hPa 0,0 l/m 0 min 0 min 0,0 UV-I 107 W/m 10,3 km/h (2 Bft)
09.11.2013 12:48 10,1 C 8,9 C 76 % 1010,4 hPa 0,0 l/m 0 min 0 min 0,0 UV-I 128 W/m 36,0 km/h (5 Bft)
09.11.2013 12:50 9,9 C 8,9 C 77 % 1010,3 hPa 0,0 l/m 0 min 0 min 0,0 UV-I 148 W/m 23,2 km/h (4 Bft)
09.11.2013 12:52 9,9 C 8,9 C 77 % 1010,2 hPa 0,0 l/m 0 min 0 min 0,0 UV-I 144 W/m 12,9 km/h (3 Bft)
09.11.2013 12:54 9,9 C 8,9 C 78 % 1010,2 hPa 0,0 l/m 0 min 0 min 0,0 UV-I 100 W/m 2,6 km/h (1 Bft)
09.11.2013 12:56 9,9 C 8,9 C 78 % 1010,3 hPa 0,0 l/m 0 min 0 min 0,0 UV-I 98 W/m 12,9 km/h (3 Bft)
09.11.2013 12:58 9,9 C 8,9 C 78 % 1010,0 hPa 0,0 l/m 2 min 0 min 0,0 UV-I 204 W/m 12,9 km/h (3 Bft)
09.11.2013 13:00 9,9 C 8,9 C 77 % 1009,9 hPa 0,0 l/m 0 min 0 min 0,0 UV-I 79 W/m 12,9 km/h (3 Bft)
09.11.2013 13:02 10,0 C 8,9 C 78 % 1010,0 hPa 0,0 l/m 2 min 0 min 0,0 UV-I 352 W/m 20,6 km/h (4 Bft)
09.11.2013 13:04 10,1 C 8,9 C 78 % 1009,9 hPa 0,0 l/m 2 min 0 min 0,0 UV-I 353 W/m 18,0 km/h (3 Bft)
09.11.2013 13:06 10,3 C 8,9 C 77 % 1009,9 hPa 0,0 l/m 2 min 0 min 0,0 UV-I 345 W/m 25,7 km/h (4 Bft)
09.11.2013 13:08 10,4 C 9,4 C 77 % 1010,0 hPa 0,0 l/m 2 min 0 min 0,0 UV-I 299 W/m 18,0 km/h (3 Bft)
09.11.2013 13:10 10,5 C 9,4 C 76 % 1010,0 hPa 0,0 l/m 2 min 0 min 0,0 UV-I 373 W/m 18,0 km/h (3 Bft)
09.11.2013 13:12 10,5 C 9,4 C 76 % 1009,9 hPa 0,0 l/m 0 min 0 min 0,0 UV-I 142 W/m 23,2 km/h (4 Bft)
09.11.2013 13:14 10,4 C 9,4 C 76 % 1009,9 hPa 0,0 l/m 0 min 0 min 0,0 UV-I 151 W/m 23,2 km/h (4 Bft)
09.11.2013 13:16 10,3 C 9,4 C 76 % 1009,9 hPa 0,0 l/m 0 min 0 min 0,0 UV-I 160 W/m 15,4 km/h (3 Bft)
09.11.2013 13:18 10,3 C 9,4 C 76 % 1010,0 hPa 0,0 l/m 0 min 0 min 0,0 UV-I 162 W/m 18,0 km/h (3 Bft)
09.11.2013 13:20 10,3 C 9,4 C 77 % 1009,9 hPa 0,0 l/m 2 min 0 min 0,0 UV-I 213 W/m 18,0 km/h (3 Bft)
09.11.2013 13:22 10,3 C 9,4 C 77 % 1009,9 hPa 0,0 l/m 0 min 0 min 0,0 UV-I 181 W/m 12,9 km/h (3 Bft)
09.11.2013 13:24 10,3 C 9,4 C 77 % 1009,9 hPa 0,0 l/m 0 min 0 min 0,0 UV-I 130 W/m 0,0 km/h (0 Bft)
09.11.2013 13:26 10,3 C 9,4 C 77 % 1009,8 hPa 0,0 l/m 0 min 0 min 0,0 UV-I 151 W/m 10,3 km/h (2 Bft)
09.11.2013 13:28 10,3 C 9,4 C 77 % 1009,9 hPa 0,0 l/m 0 min 0 min 0,0 UV-I 113 W/m 10,3 km/h (2 Bft)
09.11.2013 13:30 10,2 C 8,9 C 76 % 1009,8 hPa 0,0 l/m 0 min 0 min 0,0 UV-I 116 W/m 25,7 km/h (4 Bft)
09.11.2013 13:32 10,3 C 9,4 C 77 % 1009,8 hPa 0,2 l/m 2 min 0 min 0,0 UV-I 404 W/m 10,3 km/h (2 Bft)
09.11.2013 13:34 10,4 C 9,4 C 76 % 1009,7 hPa 0,0 l/m 2 min 0 min 0,0 UV-I 327 W/m 18,0 km/h (3 Bft)
09.11.2013 13:36 10,6 C 9,4 C 77 % 1009,7 hPa 0,0 l/m 0 min 0 min 0,0 UV-I 153 W/m 10,3 km/h (2 Bft)
09.11.2013 13:38 10,6 C 9,4 C 77 % 1009,7 hPa 0,0 l/m 0 min 0 min 0,0 UV-I 151 W/m 20,6 km/h (4 Bft)
09.11.2013 13:40 10,6 C 9,4 C 76 % 1009,7 hPa 0,0 l/m 0 min 0 min 0,0 UV-I 174 W/m 12,9 km/h (3 Bft)
09.11.2013 13:42 10,5 C 9,4 C 76 % 1009,7 hPa 0,0 l/m 0 min 0 min 0,0 UV-I 174 W/m 23,2 km/h (4 Bft)
09.11.2013 13:44 10,4 C 9,4 C 76 % 1009,7 hPa 0,0 l/m 0 min 0 min 0,0 UV-I 120 W/m 28,3 km/h (4 Bft)
09.11.2013 13:46 10,3 C 9,4 C 76 % 1009,7 hPa 0,0 l/m 0 min 0 min 0,0 UV-I 107 W/m 20,6 km/h (4 Bft)
09.11.2013 13:48 10,3 C 9,4 C 76 % 1009,7 hPa 0,0 l/m 0 min 0 min 0,0 UV-I 114 W/m 7,7 km/h (2 Bft)
09.11.2013 13:50 10,2 C 9,4 C 77 % 1009,6 hPa 0,0 l/m 0 min 0 min 0,0 UV-I 105 W/m 7,7 km/h (2 Bft)
09.11.2013 13:52 10,2 C 9,4 C 77 % 1009,7 hPa 0,0 l/m 0 min 0 min 0,0 UV-I 144 W/m 12,9 km/h (3 Bft)
09.11.2013 13:54 10,2 C 9,4 C 77 % 1009,5 hPa 0,0 l/m 0 min 0 min 0,0 UV-I 158 W/m 10,3 km/h (2 Bft)
09.11.2013 13:56 10,2 C 9,4 C 76 % 1009,5 hPa 0,0 l/m 0 min 0 min 0,0 UV-I 163 W/m 20,6 km/h (4 Bft)
09.11.2013 13:58 10,2 C 9,4 C 75 % 1009,4 hPa 0,0 l/m 0 min 0 min 0,0 UV-I 149 W/m 23,2 km/h (4 Bft)
09.11.2013 14:00 10,3 C 9,4 C 75 % 1009,5 hPa 0,0 l/m 0 min 0 min 0,0 UV-I 149 W/m 23,2 km/h (4 Bft)
09.11.2013 14:02 10,3 C 9,4 C 75 % 1009,4 hPa 0,0 l/m 0 min 0 min 0,0 UV-I 130 W/m 25,7 km/h (4 Bft)
09.11.2013 14:04 10,3 C 8,9 C 75 % 1009,5 hPa 0,0 l/m 0 min 0 min 0,0 UV-I 90 W/m 30,9 km/h (5 Bft)
09.11.2013 14:06 10,3 C 8,9 C 75 % 1009,5 hPa 0,0 l/m 2 min 0 min 0,0 UV-I 318 W/m 7,7 km/h (2 Bft)
09.11.2013 14:08 10,4 C 8,9 C 75 % 1009,4 hPa 0,0 l/m 2 min 0 min 0,0 UV-I 318 W/m 23,2 km/h (4 Bft)
09.11.2013 14:10 10,4 C 9,4 C 75 % 1009,3 hPa 0,0 l/m 2 min 0 min 0,0 UV-I 320 W/m 25,7 km/h (4 Bft)
09.11.2013 14:12 10,6 C 9,4 C 75 % 1009,4 hPa 0,0 l/m 2 min 0 min 0,0 UV-I 318 W/m 23,2 km/h (4 Bft)
09.11.2013 14:14 10,7 C 9,4 C 75 % 1009,4 hPa 0,0 l/m 2 min 0 min 0,0 UV-I 330 W/m 20,6 km/h (4 Bft)
09.11.2013 14:16 10,8 C 9,4 C 75 % 1009,3 hPa 0,0 l/m 2 min 0 min 0,0 UV-I 292 W/m 12,9 km/h (3 Bft)
09.11.2013 14:18 10,9 C 9,4 C 74 % 1009,3 hPa 0,0 l/m 2 min 0 min 0,0 UV-I 281 W/m 36,0 km/h (5 Bft)
09.11.2013 14:20 10,8 C 9,4 C 74 % 1009,3 hPa 0,0 l/m 2 min 0 min 0,0 UV-I 276 W/m 18,0 km/h (3 Bft)
09.11.2013 14:22 10,8 C 9,4 C 74 % 1009,2 hPa 0,0 l/m 2 min 0 min 0,0 UV-I 271 W/m 18,0 km/h (3 Bft)
09.11.2013 14:24 10,8 C 9,4 C 74 % 1009,3 hPa 0,0 l/m 2 min 0 min 0,0 UV-I 250 W/m 25,7 km/h (4 Bft)
09.11.2013 14:26 10,7 C 9,4 C 74 % 1009,3 hPa 0,0 l/m 2 min 0 min 0,0 UV-I 188 W/m 20,6 km/h (4 Bft)
09.11.2013 14:28 10,6 C 9,4 C 74 % 1009,2 hPa 0,0 l/m 2 min 0 min 0,0 UV-I 287 W/m 23,2 km/h (4 Bft)
09.11.2013 14:30 10,6 C 9,4 C 74 % 1009,2 hPa 0,0 l/m 2 min 0 min 0,0 UV-I 250 W/m 18,0 km/h (3 Bft)
09.11.2013 14:32 10,6 C 9,4 C 74 % 1009,2 hPa 0,0 l/m 0 min 0 min 0,0 UV-I 56 W/m 25,7 km/h (4 Bft)
09.11.2013 14:34 10,6 C 8,9 C 74 % 1009,3 hPa 0,0 l/m 0 min 0 min 0,0 UV-I 77 W/m 18,0 km/h (3 Bft)
09.11.2013 14:36 10,4 C 8,9 C 75 % 1009,2 hPa 0,0 l/m 0 min 0 min 0,0 UV-I 79 W/m 28,3 km/h (4 Bft)
09.11.2013 14:38 10,3 C 8,9 C 75 % 1009,2 hPa 0,0 l/m 0 min 0 min 0,0 UV-I 104 W/m 23,2 km/h (4 Bft)
09.11.2013 14:40 10,2 C 8,9 C 75 % 1009,3 hPa 0,0 l/m 0 min 0 min 0,0 UV-I 86 W/m 15,4 km/h (3 Bft)
09.11.2013 14:42 10,2 C 8,9 C 76 % 1009,2 hPa 0,0 l/m 2 min 0 min 0,0 UV-I 227 W/m 7,7 km/h (2 Bft)
09.11.2013 14:44 10,3 C 8,9 C 76 % 1009,2 hPa 0,0 l/m 2 min 0 min 0,0 UV-I 274 W/m 20,6 km/h (4 Bft)
09.11.2013 14:46 10,4 C 8,9 C 76 % 1009,2 hPa 0,0 l/m 2 min 0 min 0,0 UV-I 264 W/m 15,4 km/h (3 Bft)
09.11.2013 14:48 10,6 C 9,4 C 75 % 1009,1 hPa 0,0 l/m 2 min 0 min 0,0 UV-I 255 W/m 25,7 km/h (4 Bft)
09.11.2013 14:50 10,7 C 9,4 C 74 % 1009,0 hPa 0,0 l/m 2 min 0 min 0,0 UV-I 220 W/m 12,9 km/h (3 Bft)
09.11.2013 14:52 10,7 C 9,4 C 74 % 1009,1 hPa 0,0 l/m 2 min 0 min 0,0 UV-I 221 W/m 15,4 km/h (3 Bft)
09.11.2013 14:54 10,7 C 9,4 C 74 % 1009,1 hPa 0,0 l/m 2 min 0 min 0,0 UV-I 167 W/m 23,2 km/h (4 Bft)
09.11.2013 14:56 10,7 C 8,9 C 74 % 1009,0 hPa 0,0 l/m 2 min 0 min 0,0 UV-I 156 W/m 30,9 km/h (5 Bft)
09.11.2013 14:58 10,6 C 8,9 C 74 % 1009,0 hPa 0,0 l/m 2 min 0 min 0,0 UV-I 162 W/m 10,3 km/h (2 Bft)
09.11.2013 15:00 10,6 C 8,9 C 74 % 1009,1 hPa 0,0 l/m 2 min 0 min 0,0 UV-I 195 W/m 25,7 km/h (4 Bft)
09.11.2013 15:02 10,6 C 9,4 C 74 % 1009,0 hPa 0,0 l/m 2 min 0 min 0,0 UV-I 193 W/m 5,1 km/h (1 Bft)
09.11.2013 15:04 10,6 C 9,4 C 74 % 1008,9 hPa 0,0 l/m 2 min 0 min 0,0 UV-I 181 W/m 12,9 km/h (3 Bft)
09.11.2013 15:06 10,6 C 8,9 C 74 % 1009,0 hPa 0,0 l/m 0 min 0 min 0,0 UV-I 95 W/m 23,2 km/h (4 Bft)
09.11.2013 15:08 10,5 C 8,9 C 74 % 1008,9 hPa 0,0 l/m 0 min 0 min 0,0 UV-I 81 W/m 10,3 km/h (2 Bft)
09.11.2013 15:10 10,4 C 8,9 C 74 % 1009,0 hPa 0,0 l/m 2 min 0 min 0,0 UV-I 160 W/m 12,9 km/h (3 Bft)
09.11.2013 15:12 10,3 C 8,9 C 75 % 1008,9 hPa 0,0 l/m 2 min 0 min 0,0 UV-I 155 W/m 12,9 km/h (3 Bft)
09.11.2013 15:14 10,3 C 8,9 C 75 % 1008,9 hPa 0,0 l/m 2 min 0 min 0,0 UV-I 178 W/m 5,1 km/h (1 Bft)
09.11.2013 15:16 10,3 C 8,9 C 75 % 1008,8 hPa 0,0 l/m 2 min 0 min 0,0 UV-I 176 W/m 23,2 km/h (4 Bft)
09.11.2013 15:18 10,3 C 8,9 C 75 % 1008,7 hPa 0,0 l/m 2 min 0 min 0,0 UV-I 144 W/m 12,9 km/h (3 Bft)
09.11.2013 15:20 10,2 C 8,9 C 75 % 1008,7 hPa 0,0 l/m 2 min 0 min 0,0 UV-I 125 W/m 2,6 km/h (1 Bft)
09.11.2013 15:22 10,2 C 8,9 C 75 % 1008,7 hPa 0,0 l/m 0 min 0 min 0,0 UV-I 65 W/m 15,4 km/h (3 Bft)
09.11.2013 15:24 10,2 C 8,9 C 75 % 1008,8 hPa 0,0 l/m 0 min 0 min 0,0 UV-I 65 W/m 15,4 km/h (3 Bft)
09.11.2013 15:26 10,1 C 8,9 C 75 % 1008,8 hPa 0,0 l/m 0 min 0 min 0,0 UV-I 53 W/m 23,2 km/h (4 Bft)
09.11.2013 15:28 10,1 C 8,9 C 75 % 1008,7 hPa 0,0 l/m 0 min 0 min 0,0 UV-I 46 W/m 12,9 km/h (3 Bft)
09.11.2013 15:30 10,1 C 8,9 C 75 % 1008,8 hPa 0,0 l/m 0 min 0 min 0,0 UV-I 33 W/m 20,6 km/h (4 Bft)
09.11.2013 15:32 10,1 C 8,9 C 75 % 1008,8 hPa 0,0 l/m 0 min 0 min 0,0 UV-I 33 W/m 18,0 km/h (3 Bft)
09.11.2013 15:34 10,1 C 8,9 C 76 % 1008,8 hPa 0,0 l/m 0 min 0 min 0,0 UV-I 35 W/m 0,0 km/h (0 Bft)
09.11.2013 15:36 10,0 C 8,3 C 76 % 1008,8 hPa 0,0 l/m 0 min 0 min 0,0 UV-I 37 W/m 10,3 km/h (2 Bft)
09.11.2013 15:38 10,0 C 8,3 C 76 % 1008,7 hPa 0,0 l/m 0 min 0 min 0,0 UV-I 54 W/m 7,7 km/h (2 Bft)
09.11.2013 15:40 9,9 C 8,3 C 76 % 1008,6 hPa 0,0 l/m 0 min 0 min 0,0 UV-I 58 W/m 18,0 km/h (3 Bft)
09.11.2013 15:42 9,9 C 8,3 C 75 % 1008,6 hPa 0,0 l/m 0 min 0 min 0,0 UV-I 58 W/m 12,9 km/h (3 Bft)
09.11.2013 15:44 9,9 C 8,3 C 76 % 1008,6 hPa 0,0 l/m 0 min 0 min 0,0 UV-I 53 W/m 20,6 km/h (4 Bft)
09.11.2013 15:46 9,9 C 8,3 C 76 % 1008,4 hPa 0,0 l/m 0 min 0 min 0,0 UV-I 49 W/m 12,9 km/h (3 Bft)
09.11.2013 15:48 9,8 C 8,3 C 76 % 1008,5 hPa 0,0 l/m 0 min 0 min 0,0 UV-I 44 W/m 25,7 km/h (4 Bft)
09.11.2013 15:50 9,8 C 8,3 C 75 % 1008,5 hPa 0,0 l/m 0 min 0 min 0,0 UV-I 42 W/m 15,4 km/h (3 Bft)
09.11.2013 15:52 9,8 C 8,3 C 74 % 1008,4 hPa 0,0 l/m 0 min 0 min 0,0 UV-I 42 W/m 20,6 km/h (4 Bft)
09.11.2013 15:54 9,8 C 8,3 C 75 % 1008,4 hPa 0,0 l/m 0 min 0 min 0,0 UV-I 44 W/m 12,9 km/h (3 Bft)
09.11.2013 15:56 9,8 C 8,3 C 75 % 1008,4 hPa 0,0 l/m 0 min 0 min 0,0 UV-I 44 W/m 7,7 km/h (2 Bft)
09.11.2013 15:58 9,8 C 8,3 C 75 % 1008,4 hPa 0,0 l/m 0 min 0 min 0,0 UV-I 40 W/m 10,3 km/h (2 Bft)
09.11.2013 16:00 9,8 C 8,3 C 74 % 1008,3 hPa 0,0 l/m 0 min 0 min 0,0 UV-I 37 W/m 7,7 km/h (2 Bft)
09.11.2013 16:02 9,8 C 8,3 C 75 % 1008,2 hPa 0,0 l/m 0 min 0 min 0,0 UV-I 30 W/m 7,7 km/h (2 Bft)
09.11.2013 16:04 9,8 C 8,3 C 75 % 1008,2 hPa 0,0 l/m 0 min 0 min 0,0 UV-I 26 W/m 0,0 km/h (0 Bft)
09.11.2013 16:06 9,7 C 8,3 C 75 % 1008,2 hPa 0,0 l/m 0 min 0 min 0,0 UV-I 25 W/m 7,7 km/h (2 Bft)
09.11.2013 16:08 9,7 C 8,3 C 75 % 1008,1 hPa 0,0 l/m 0 min 0 min 0,0 UV-I 23 W/m 23,2 km/h (4 Bft)
09.11.2013 16:10 9,7 C 8,3 C 75 % 1008,2 hPa 0,0 l/m 0 min 0 min 0,0 UV-I 19 W/m 0,0 km/h (0 Bft)
09.11.2013 16:12 9,7 C 8,3 C 75 % 1008,1 hPa 0,0 l/m 0 min 0 min 0,0 UV-I 18 W/m 0,0 km/h (0 Bft)
09.11.2013 16:14 9,7 C 8,3 C 75 % 1008,1 hPa 0,0 l/m 0 min 0 min 0,0 UV-I 16 W/m 5,1 km/h (1 Bft)
09.11.2013 16:16 9,6 C 8,3 C 75 % 1008,1 hPa 0,0 l/m 0 min 0 min 0,0 UV-I 14 W/m 15,4 km/h (3 Bft)
09.11.2013 16:18 9,6 C 7,8 C 75 % 1008,1 hPa 0,0 l/m 0 min 0 min 0,0 UV-I 14 W/m 10,3 km/h (2 Bft)
09.11.2013 16:20 9,6 C 7,8 C 75 % 1008,1 hPa 0,0 l/m 0 min 0 min 0,0 UV-I 12 W/m 7,7 km/h (2 Bft)
09.11.2013 16:22 9,6 C 7,8 C 76 % 1008,0 hPa 0,0 l/m 0 min 0 min 0,0 UV-I 11 W/m 10,3 km/h (2 Bft)
09.11.2013 16:24 9,5 C 7,8 C 76 % 1007,9 hPa 0,0 l/m 0 min 0 min 0,0 UV-I 11 W/m 18,0 km/h (3 Bft)
09.11.2013 16:26 9,5 C 7,8 C 76 % 1007,9 hPa 0,0 l/m 0 min 0 min 0,0 UV-I 11 W/m 10,3 km/h (2 Bft)
09.11.2013 16:28 9,5 C 7,8 C 76 % 1007,8 hPa 0,0 l/m 0 min 0 min 0,0 UV-I 11 W/m 5,1 km/h (1 Bft)
09.11.2013 16:30 9,4 C 7,8 C 76 % 1007,8 hPa 0,0 l/m 0 min 0 min 0,0 UV-I 9 W/m 7,7 km/h (2 Bft)
09.11.2013 16:32 9,4 C 7,8 C 76 % 1007,8 hPa 0,0 l/m 0 min 0 min 0,0 UV-I 9 W/m 5,1 km/h (1 Bft)
09.11.2013 16:34 9,4 C 7,8 C 76 % 1007,8 hPa 0,0 l/m 0 min 0 min 0,0 UV-I 9 W/m 5,1 km/h (1 Bft)
09.11.2013 16:36 9,4 C 7,8 C 76 % 1007,7 hPa 0,0 l/m 0 min 0 min 0,0 UV-I 7 W/m 10,3 km/h (2 Bft)
09.11.2013 16:38 9,3 C 7,8 C 77 % 1007,6 hPa 0,0 l/m 0 min 0 min 0,0 UV-I 7 W/m 5,1 km/h (1 Bft)
09.11.2013 16:40 9,3 C 7,8 C 77 % 1007,6 hPa 0,0 l/m 0 min 0 min 0,0 UV-I 7 W/m 2,6 km/h (1 Bft)
09.11.2013 16:42 9,3 C 7,8 C 77 % 1007,5 hPa 0,0 l/m 0 min 0 min 0,0 UV-I 5 W/m 2,6 km/h (1 Bft)
09.11.2013 16:44 9,3 C 7,8 C 77 % 1007,5 hPa 0,0 l/m 0 min 0 min 0,0 UV-I 5 W/m 0,0 km/h (0 Bft)
09.11.2013 16:46 9,2 C 7,8 C 77 % 1007,4 hPa 0,0 l/m 0 min 0 min 0,0 UV-I 5 W/m 7,7 km/h (2 Bft)
09.11.2013 16:48 9,2 C 7,8 C 77 % 1007,4 hPa 0,0 l/m 0 min 0 min 0,0 UV-I 0 W/m 2,6 km/h (1 Bft)
09.11.2013 16:50 9,2 C 7,8 C 77 % 1007,3 hPa 0,0 l/m 0 min 0 min 0,0 UV-I 0 W/m 7,7 km/h (2 Bft)
09.11.2013 16:52 9,2 C 7,8 C 77 % 1007,3 hPa 0,0 l/m 0 min 0 min 0,0 UV-I 0 W/m 15,4 km/h (3 Bft)
09.11.2013 16:54 9,2 C 7,8 C 78 % 1007,3 hPa 0,0 l/m 0 min 0 min 0,0 UV-I 0 W/m 12,9 km/h (3 Bft)
09.11.2013 16:56 9,1 C 7,8 C 78 % 1007,3 hPa 0,0 l/m 0 min 0 min 0,0 UV-I 0 W/m 12,9 km/h (3 Bft)
09.11.2013 16:58 9,1 C 7,8 C 78 % 1007,3 hPa 0,0 l/m 0 min 0 min 0,0 UV-I 0 W/m 2,6 km/h (1 Bft)
09.11.2013 17:00 9,1 C 7,8 C 78 % 1007,2 hPa 0,0 l/m 0 min 0 min 0,0 UV-I 0 W/m 5,1 km/h (1 Bft)
09.11.2013 17:02 9,1 C 7,8 C 78 % 1007,1 hPa 0,0 l/m 0 min 0 min 0,0 UV-I 0 W/m 0,0 km/h (0 Bft)
09.11.2013 17:04 9,0 C 7,2 C 79 % 1007,1 hPa 0,0 l/m 0 min 0 min 0,0 UV-I 0 W/m 7,7 km/h (2 Bft)
09.11.2013 17:06 8,9 C 7,2 C 79 % 1007,1 hPa 0,0 l/m 0 min 0 min 0,0 UV-I 0 W/m 7,7 km/h (2 Bft)
09.11.2013 17:08 8,9 C 7,2 C 79 % 1007,1 hPa 0,0 l/m 0 min 0 min 0,0 UV-I 0 W/m 2,6 km/h (1 Bft)
09.11.2013 17:10 8,9 C 7,2 C 79 % 1007,1 hPa 0,0 l/m 0 min 0 min 0,0 UV-I 0 W/m 10,3 km/h (2 Bft)
09.11.2013 17:12 8,9 C 7,2 C 79 % 1007,1 hPa 0,0 l/m 0 min 0 min 0,0 UV-I 0 W/m 0,0 km/h (0 Bft)
09.11.2013 17:14 8,9 C 7,2 C 79 % 1006,9 hPa 0,0 l/m 0 min 0 min 0,0 UV-I 0 W/m 0,0 km/h (0 Bft)
09.11.2013 17:16 8,9 C 7,2 C 80 % 1006,9 hPa 0,0 l/m 0 min 0 min 0,0 UV-I 0 W/m 7,7 km/h (2 Bft)
09.11.2013 17:18 8,9 C 7,2 C 80 % 1006,9 hPa 0,0 l/m 0 min 0 min 0,0 UV-I 0 W/m 5,1 km/h (1 Bft)
09.11.2013 17:20 8,9 C 7,2 C 79 % 1006,9 hPa 0,0 l/m 0 min 0 min 0,0 UV-I 0 W/m 15,4 km/h (3 Bft)
09.11.2013 17:22 8,9 C 7,2 C 79 % 1006,8 hPa 0,0 l/m 0 min 0 min 0,0 UV-I 0 W/m 5,1 km/h (1 Bft)
09.11.2013 17:24 8,9 C 7,2 C 79 % 1006,8 hPa 0,0 l/m 0 min 0 min 0,0 UV-I 0 W/m 7,7 km/h (2 Bft)
09.11.2013 17:26 8,9 C 7,8 C 79 % 1006,8 hPa 0,0 l/m 0 min 0 min 0,0 UV-I 0 W/m 7,7 km/h (2 Bft)
09.11.2013 17:28 8,9 C 7,8 C 79 % 1006,7 hPa 0,0 l/m 0 min 0 min 0,0 UV-I 0 W/m 18,0 km/h (3 Bft)
09.11.2013 17:30 9,0 C 7,8 C 79 % 1006,7 hPa 0,0 l/m 0 min 0 min 0,0 UV-I 0 W/m 12,9 km/h (3 Bft)
09.11.2013 17:32 9,0 C 7,8 C 79 % 1006,7 hPa 0,0 l/m 0 min 0 min 0,0 UV-I 0 W/m 10,3 km/h (2 Bft)
09.11.2013 17:34 9,1 C 7,8 C 79 % 1006,7 hPa 0,0 l/m 0 min 0 min 0,0 UV-I 0 W/m 18,0 km/h (3 Bft)
09.11.2013 17:36 9,1 C 7,8 C 78 % 1006,7 hPa 0,0 l/m 0 min 0 min 0,0 UV-I 0 W/m 12,9 km/h (3 Bft)
09.11.2013 17:38 9,1 C 7,8 C 78 % 1006,6 hPa 0,0 l/m 0 min 0 min 0,0 UV-I 0 W/m 10,3 km/h (2 Bft)
09.11.2013 17:40 9,1 C 7,8 C 78 % 1006,6 hPa 0,0 l/m 0 min 0 min 0,0 UV-I 0 W/m 12,9 km/h (3 Bft)
09.11.2013 17:42 9,1 C 7,8 C 78 % 1006,5 hPa 0,0 l/m 0 min 0 min 0,0 UV-I 0 W/m 15,4 km/h (3 Bft)
09.11.2013 17:44 9,1 C 7,8 C 78 % 1006,5 hPa 0,0 l/m 0 min 0 min 0,0 UV-I 0 W/m 23,2 km/h (4 Bft)
09.11.2013 17:46 9,1 C 7,8 C 78 % 1006,4 hPa 0,0 l/m 0 min 0 min 0,0 UV-I 0 W/m 20,6 km/h (4 Bft)
09.11.2013 17:48 9,2 C 7,8 C 78 % 1006,3 hPa 0,0 l/m 0 min 0 min 0,0 UV-I 0 W/m 12,9 km/h (3 Bft)
09.11.2013 17:50 9,2 C 7,8 C 77 % 1006,2 hPa 0,0 l/m 0 min 0 min 0,0 UV-I 0 W/m 23,2 km/h (4 Bft)
09.11.2013 17:52 9,2 C 7,8 C 77 % 1006,2 hPa 0,0 l/m 0 min 0 min 0,0 UV-I 0 W/m 12,9 km/h (3 Bft)
09.11.2013 17:54 9,2 C 7,8 C 77 % 1006,1 hPa 0,0 l/m 0 min 0 min 0,0 UV-I 0 W/m 20,6 km/h (4 Bft)
09.11.2013 17:56 9,2 C 7,8 C 77 % 1006,1 hPa 0,0 l/m 0 min 0 min 0,0 UV-I 0 W/m 23,2 km/h (4 Bft)
09.11.2013 17:58 9,2 C 7,8 C 77 % 1006,1 hPa 0,0 l/m 0 min 0 min 0,0 UV-I 0 W/m 10,3 km/h (2 Bft)
09.11.2013 18:00 9,2 C 7,8 C 77 % 1006,1 hPa 0,0 l/m 0 min 0 min 0,0 UV-I 0 W/m 18,0 km/h (3 Bft)
09.11.2013 18:02 9,2 C 7,8 C 77 % 1006,1 hPa 0,0 l/m 0 min 0 min 0,0 UV-I 0 W/m 20,6 km/h (4 Bft)
09.11.2013 18:06 9,2 C 7,8 C 77 % 1006,0 hPa 0,0 l/m 0 min 2 min 0,0 UV-I 0 W/m 18,0 km/h (3 Bft)
09.11.2013 18:08 9,2 C 7,2 C 78 % 1006,0 hPa 0,0 l/m 0 min 2 min 0,0 UV-I 0 W/m 7,7 km/h (2 Bft)
09.11.2013 18:10 9,2 C 6,7 C 79 % 1005,9 hPa 0,0 l/m 0 min 2 min 0,0 UV-I 0 W/m 5,1 km/h (1 Bft)
09.11.2013 18:12 9,1 C 6,7 C 80 % 1005,9 hPa 0,0 l/m 0 min 2 min 0,0 UV-I 0 W/m 10,3 km/h (2 Bft)
09.11.2013 18:14 9,0 C 6,7 C 81 % 1005,9 hPa 0,0 l/m 0 min 2 min 0,0 UV-I 0 W/m 18,0 km/h (3 Bft)
09.11.2013 18:16 8,9 C 6,1 C 82 % 1005,9 hPa 0,0 l/m 0 min 2 min 0,0 UV-I 0 W/m 10,3 km/h (2 Bft)
09.11.2013 18:18 8,8 C 6,1 C 82 % 1005,8 hPa 0,0 l/m 0 min 2 min 0,0 UV-I 0 W/m 5,1 km/h (1 Bft)
09.11.2013 18:20 8,7 C 6,1 C 83 % 1005,8 hPa 0,0 l/m 0 min 2 min 0,0 UV-I 0 W/m 0,0 km/h (0 Bft)
09.11.2013 18:22 8,6 C 6,1 C 83 % 1005,7 hPa 0,0 l/m 0 min 2 min 0,0 UV-I 0 W/m 0,0 km/h (0 Bft)
09.11.2013 18:24 8,6 C 6,1 C 84 % 1005,7 hPa 0,0 l/m 0 min 2 min 0,0 UV-I 0 W/m 12,9 km/h (3 Bft)
09.11.2013 18:26 8,5 C 6,1 C 84 % 1005,7 hPa 0,0 l/m 0 min 2 min 0,0 UV-I 0 W/m 23,2 km/h (4 Bft)
09.11.2013 18:28 8,4 C 6,1 C 85 % 1005,6 hPa 0,0 l/m 0 min 2 min 0,0 UV-I 0 W/m 18,0 km/h (3 Bft)
09.11.2013 18:30 8,4 C 6,1 C 85 % 1005,5 hPa 0,0 l/m 0 min 0 min 0,0 UV-I 0 W/m 20,6 km/h (4 Bft)
09.11.2013 18:32 8,4 C 6,1 C 85 % 1005,4 hPa 0,0 l/m 0 min 0 min 0,0 UV-I 0 W/m 12,9 km/h (3 Bft)
09.11.2013 18:34 8,4 C 6,1 C 85 % 1005,3 hPa 0,0 l/m 0 min 0 min 0,0 UV-I 0 W/m 15,4 km/h (3 Bft)
09.11.2013 18:36 8,3 C 6,1 C 85 % 1005,2 hPa 0,0 l/m 0 min 0 min 0,0 UV-I 0 W/m 18,0 km/h (3 Bft)
09.11.2013 18:38 8,3 C 6,1 C 85 % 1005,2 hPa 0,0 l/m 0 min 0 min 0,0 UV-I 0 W/m 20,6 km/h (4 Bft)
09.11.2013 18:40 8,4 C 6,1 C 85 % 1005,2 hPa 0,0 l/m 0 min 0 min 0,0 UV-I 0 W/m 12,9 km/h (3 Bft)
09.11.2013 18:42 8,4 C 6,1 C 85 % 1005,1 hPa 0,0 l/m 0 min 2 min 0,0 UV-I 0 W/m 15,4 km/h (3 Bft)
09.11.2013 18:44 8,4 C 6,1 C 85 % 1005,0 hPa 0,0 l/m 0 min 0 min 0,0 UV-I 0 W/m 10,3 km/h (2 Bft)
09.11.2013 18:46 8,4 C 6,1 C 85 % 1005,0 hPa 0,0 l/m 0 min 0 min 0,0 UV-I 0 W/m 12,9 km/h (3 Bft)
09.11.2013 18:48 8,4 C 6,1 C 85 % 1005,0 hPa 0,0 l/m 0 min 0 min 0,0 UV-I 0 W/m 10,3 km/h (2 Bft)
09.11.2013 18:50 8,4 C 6,1 C 85 % 1004,9 hPa 0,0 l/m 0 min 0 min 0,0 UV-I 0 W/m 12,9 km/h (3 Bft)
09.11.2013 18:52 8,4 C 6,1 C 85 % 1004,9 hPa 0,0 l/m 0 min 0 min 0,0 UV-I 0 W/m 18,0 km/h (3 Bft)
09.11.2013 18:54 8,4 C 6,1 C 85 % 1004,7 hPa 0,0 l/m 0 min 0 min 0,0 UV-I 0 W/m 12,9 km/h (3 Bft)
09.11.2013 18:56 8,4 C 6,1 C 85 % 1004,6 hPa 0,0 l/m 0 min 0 min 0,0 UV-I 0 W/m 15,4 km/h (3 Bft)
09.11.2013 18:58 8,4 C 6,1 C 85 % 1004,6 hPa 0,0 l/m 0 min 0 min 0,0 UV-I 0 W/m 15,4 km/h (3 Bft)
09.11.2013 19:00 8,4 C 6,1 C 85 % 1004,6 hPa 0,0 l/m 0 min 2 min 0,0 UV-I 0 W/m 20,6 km/h (4 Bft)
09.11.2013 19:02 8,4 C 6,1 C 85 % 1004,5 hPa 0,0 l/m 0 min 0 min 0,0 UV-I 0 W/m 20,6 km/h (4 Bft)
09.11.2013 19:04 8,4 C 6,1 C 85 % 1004,5 hPa 0,0 l/m 0 min 2 min 0,0 UV-I 0 W/m 12,9 km/h (3 Bft)
09.11.2013 19:06 8,4 C 6,1 C 85 % 1004,4 hPa 0,0 l/m 0 min 2 min 0,0 UV-I 0 W/m 12,9 km/h (3 Bft)
09.11.2013 19:08 8,4 C 6,1 C 85 % 1004,3 hPa 0,0 l/m 0 min 2 min 0,0 UV-I 0 W/m 15,4 km/h (3 Bft)
09.11.2013 19:10 8,4 C 6,1 C 85 % 1004,3 hPa 0,0 l/m 0 min 2 min 0,0 UV-I 0 W/m 23,2 km/h (4 Bft)
09.11.2013 19:12 8,4 C 6,1 C 85 % 1004,3 hPa 0,0 l/m 0 min 2 min 0,0 UV-I 0 W/m 10,3 km/h (2 Bft)
09.11.2013 19:14 8,4 C 6,1 C 85 % 1004,1 hPa 0,0 l/m 0 min 2 min 0,0 UV-I 0 W/m 18,0 km/h (3 Bft)
09.11.2013 19:16 8,4 C 6,1 C 85 % 1004,1 hPa 0,0 l/m 0 min 2 min 0,0 UV-I 0 W/m 10,3 km/h (2 Bft)
09.11.2013 19:18 8,4 C 6,1 C 86 % 1004,1 hPa 0,0 l/m 0 min 2 min 0,0 UV-I 0 W/m 18,0 km/h (3 Bft)
09.11.2013 19:20 8,3 C 6,1 C 86 % 1004,1 hPa 0,0 l/m 0 min 2 min 0,0 UV-I 0 W/m 18,0 km/h (3 Bft)
09.11.2013 19:22 8,4 C 6,1 C 86 % 1004,0 hPa 0,0 l/m 0 min 2 min 0,0 UV-I 0 W/m 12,9 km/h (3 Bft)
09.11.2013 19:24 8,3 C 6,1 C 86 % 1004,0 hPa 0,0 l/m 0 min 2 min 0,0 UV-I 0 W/m 12,9 km/h (3 Bft)
09.11.2013 19:26 8,3 C 6,1 C 86 % 1003,9 hPa 0,0 l/m 0 min 2 min 0,0 UV-I 0 W/m 15,4 km/h (3 Bft)
09.11.2013 19:28 8,4 C 6,1 C 86 % 1003,7 hPa 0,0 l/m 0 min 2 min 0,0 UV-I 0 W/m 18,0 km/h (3 Bft)
09.11.2013 19:30 8,4 C 6,1 C 86 % 1003,8 hPa 0,0 l/m 0 min 2 min 0,0 UV-I 0 W/m 15,4 km/h (3 Bft)
09.11.2013 19:32 8,4 C 6,1 C 86 % 1003,7 hPa 0,0 l/m 0 min 2 min 0,0 UV-I 0 W/m 10,3 km/h (2 Bft)
09.11.2013 19:34 8,4 C 6,1 C 86 % 1003,7 hPa 0,0 l/m 0 min 2 min 0,0 UV-I 0 W/m 12,9 km/h (3 Bft)
09.11.2013 19:36 8,4 C 6,1 C 86 % 1003,7 hPa 0,0 l/m 0 min 2 min 0,0 UV-I 0 W/m 5,1 km/h (1 Bft)
09.11.2013 19:38 8,4 C 6,1 C 86 % 1003,7 hPa 0,0 l/m 0 min 2 min 0,0 UV-I 0 W/m 12,9 km/h (3 Bft)
09.11.2013 19:40 8,4 C 6,1 C 86 % 1003,6 hPa 0,0 l/m 0 min 0 min 0,0 UV-I 0 W/m 18,0 km/h (3 Bft)
09.11.2013 19:42 8,4 C 6,7 C 87 % 1003,7 hPa 0,0 l/m 0 min 0 min 0,0 UV-I 0 W/m 10,3 km/h (2 Bft)
09.11.2013 19:44 8,4 C 6,7 C 87 % 1003,6 hPa 0,0 l/m 0 min 2 min 0,0 UV-I 0 W/m 20,6 km/h (4 Bft)
09.11.2013 19:46 8,5 C 6,7 C 86 % 1003,7 hPa 0,0 l/m 0 min 2 min 0,0 UV-I 0 W/m 23,2 km/h (4 Bft)
09.11.2013 19:48 8,5 C 6,7 C 86 % 1003,7 hPa 0,0 l/m 0 min 0 min 0,0 UV-I 0 W/m 18,0 km/h (3 Bft)
09.11.2013 19:50 8,6 C 6,7 C 86 % 1003,6 hPa 0,0 l/m 0 min 0 min 0,0 UV-I 0 W/m 18,0 km/h (3 Bft)
09.11.2013 19:52 8,6 C 6,7 C 86 % 1003,6 hPa 0,0 l/m 0 min 0 min 0,0 UV-I 0 W/m 15,4 km/h (3 Bft)
09.11.2013 19:54 8,7 C 6,7 C 85 % 1003,6 hPa 0,0 l/m 0 min 2 min 0,0 UV-I 0 W/m 7,7 km/h (2 Bft)
09.11.2013 19:56 8,7 C 6,7 C 85 % 1003,6 hPa 0,0 l/m 0 min 2 min 0,0 UV-I 0 W/m 15,4 km/h (3 Bft)
09.11.2013 19:58 8,7 C 6,7 C 85 % 1003,6 hPa 0,0 l/m 0 min 2 min 0,0 UV-I 0 W/m 15,4 km/h (3 Bft)
09.11.2013 20:00 8,8 C 6,7 C 85 % 1003,6 hPa 0,0 l/m 0 min 2 min 0,0 UV-I 0 W/m 10,3 km/h (2 Bft)
09.11.2013 20:02 8,8 C 6,7 C 85 % 1003,6 hPa 0,0 l/m 0 min 2 min 0,0 UV-I 0 W/m 5,1 km/h (1 Bft)
09.11.2013 20:04 8,8 C 6,7 C 85 % 1003,6 hPa 0,0 l/m 0 min 2 min 0,0 UV-I 0 W/m 5,1 km/h (1 Bft)
09.11.2013 20:06 8,8 C 6,7 C 85 % 1003,5 hPa 0,0 l/m 0 min 2 min 0,0 UV-I 0 W/m 20,6 km/h (4 Bft)
09.11.2013 20:08 8,9 C 6,7 C 85 % 1003,5 hPa 0,0 l/m 0 min 2 min 0,0 UV-I 0 W/m 10,3 km/h (2 Bft)
09.11.2013 20:10 8,9 C 6,7 C 85 % 1003,6 hPa 0,0 l/m 0 min 2 min 0,0 UV-I 0 W/m 20,6 km/h (4 Bft)
09.11.2013 20:12 8,9 C 6,7 C 85 % 1003,5 hPa 0,0 l/m 0 min 2 min 0,0 UV-I 0 W/m 30,9 km/h (5 Bft)
09.11.2013 20:14 8,9 C 6,7 C 85 % 1003,5 hPa 0,0 l/m 0 min 2 min 0,0 UV-I 0 W/m 18,0 km/h (3 Bft)
09.11.2013 20:16 8,9 C 6,7 C 85 % 1003,5 hPa 0,2 l/m 0 min 2 min 0,0 UV-I 0 W/m 30,9 km/h (5 Bft)
09.11.2013 20:18 8,9 C 6,7 C 86 % 1003,4 hPa 0,0 l/m 0 min 2 min 0,0 UV-I 0 W/m 15,4 km/h (3 Bft)
09.11.2013 20:20 8,9 C 6,7 C 86 % 1003,2 hPa 0,0 l/m 0 min 2 min 0,0 UV-I 0 W/m 18,0 km/h (3 Bft)
09.11.2013 20:22 9,0 C 6,7 C 86 % 1003,4 hPa 0,0 l/m 0 min 2 min 0,0 UV-I 0 W/m 18,0 km/h (3 Bft)
09.11.2013 20:24 8,9 C 6,7 C 86 % 1003,3 hPa 0,0 l/m 0 min 2 min 0,0 UV-I 0 W/m 23,2 km/h (4 Bft)
09.11.2013 20:26 8,9 C 6,7 C 86 % 1003,3 hPa 0,0 l/m 0 min 2 min 0,0 UV-I 0 W/m 18,0 km/h (3 Bft)
09.11.2013 20:28 8,9 C 6,7 C 87 % 1003,3 hPa 0,0 l/m 0 min 2 min 0,0 UV-I 0 W/m 15,4 km/h (3 Bft)
09.11.2013 20:30 8,8 C 6,7 C 87 % 1003,3 hPa 0,0 l/m 0 min 2 min 0,0 UV-I 0 W/m 25,7 km/h (4 Bft)
09.11.2013 20:32 8,8 C 6,7 C 87 % 1003,2 hPa 0,0 l/m 0 min 2 min 0,0 UV-I 0 W/m 23,2 km/h (4 Bft)
09.11.2013 20:34 8,8 C 6,7 C 87 % 1003,4 hPa 0,0 l/m 0 min 2 min 0,0 UV-I 0 W/m 20,6 km/h (4 Bft)
09.11.2013 20:36 8,8 C 6,7 C 87 % 1003,1 hPa 0,0 l/m 0 min 2 min 0,0 UV-I 0 W/m 20,6 km/h (4 Bft)
09.11.2013 20:38 8,7 C 6,7 C 88 % 1003,1 hPa 0,0 l/m 0 min 2 min 0,0 UV-I 0 W/m 25,7 km/h (4 Bft)
09.11.2013 20:40 8,7 C 6,7 C 88 % 1003,4 hPa 0,0 l/m 0 min 2 min 0,0 UV-I 0 W/m 28,3 km/h (4 Bft)
09.11.2013 20:42 8,7 C 6,7 C 88 % 1003,1 hPa 0,0 l/m 0 min 2 min 0,0 UV-I 0 W/m 15,4 km/h (3 Bft)
09.11.2013 20:44 8,7 C 6,7 C 88 % 1003,0 hPa 0,0 l/m 0 min 2 min 0,0 UV-I 0 W/m 23,2 km/h (4 Bft)
09.11.2013 20:46 8,7 C 6,7 C 88 % 1002,9 hPa 0,0 l/m 0 min 2 min 0,0 UV-I 0 W/m 25,7 km/h (4 Bft)
09.11.2013 20:48 8,6 C 6,7 C 88 % 1002,9 hPa 0,0 l/m 0 min 2 min 0,0 UV-I 0 W/m 15,4 km/h (3 Bft)
09.11.2013 20:50 8,6 C 6,7 C 89 % 1002,8 hPa 0,0 l/m 0 min 2 min 0,0 UV-I 0 W/m 23,2 km/h (4 Bft)
09.11.2013 20:52 8,6 C 6,7 C 89 % 1002,9 hPa 0,0 l/m 0 min 2 min 0,0 UV-I 0 W/m 28,3 km/h (4 Bft)
09.11.2013 20:54 8,6 C 6,7 C 89 % 1002,8 hPa 0,0 l/m 0 min 2 min 0,0 UV-I 0 W/m 12,9 km/h (3 Bft)
09.11.2013 20:56 8,5 C 6,7 C 89 % 1002,7 hPa 0,0 l/m 0 min 2 min 0,0 UV-I 0 W/m 7,7 km/h (2 Bft)
09.11.2013 20:58 8,5 C 6,7 C 89 % 1002,7 hPa 0,0 l/m 0 min 2 min 0,0 UV-I 0 W/m 12,9 km/h (3 Bft)
09.11.2013 21:00 8,5 C 6,7 C 90 % 1002,7 hPa 0,0 l/m 0 min 2 min 0,0 UV-I 0 W/m 18,0 km/h (3 Bft)
09.11.2013 21:02 8,4 C 6,7 C 90 % 1002,7 hPa 0,0 l/m 0 min 2 min 0,0 UV-I 0 W/m 18,0 km/h (3 Bft)
09.11.2013 21:04 8,4 C 6,7 C 90 % 1002,5 hPa 0,0 l/m 0 min 2 min 0,0 UV-I 0 W/m 10,3 km/h (2 Bft)
09.11.2013 21:06 8,4 C 6,7 C 90 % 1002,7 hPa 0,2 l/m 0 min 2 min 0,0 UV-I 0 W/m 25,7 km/h (4 Bft)
09.11.2013 21:08 8,4 C 6,7 C 90 % 1002,6 hPa 0,0 l/m 0 min 2 min 0,0 UV-I 0 W/m 25,7 km/h (4 Bft)
09.11.2013 21:10 8,4 C 6,7 C 90 % 1002,4 hPa 0,0 l/m 0 min 2 min 0,0 UV-I 0 W/m 23,2 km/h (4 Bft)
09.11.2013 21:12 8,4 C 6,7 C 90 % 1002,4 hPa 0,0 l/m 0 min 2 min 0,0 UV-I 0 W/m 10,3 km/h (2 Bft)
09.11.2013 21:14 8,4 C 6,7 C 91 % 1002,4 hPa 0,0 l/m 0 min 2 min 0,0 UV-I 0 W/m 20,6 km/h (4 Bft)
09.11.2013 21:16 8,4 C 6,7 C 90 % 1002,4 hPa 0,0 l/m 0 min 2 min 0,0 UV-I 0 W/m 20,6 km/h (4 Bft)
09.11.2013 21:18 8,3 C 6,7 C 91 % 1002,3 hPa 0,0 l/m 0 min 2 min 0,0 UV-I 0 W/m 20,6 km/h (4 Bft)
09.11.2013 21:20 8,3 C 6,7 C 91 % 1002,2 hPa 0,0 l/m 0 min 0 min 0,0 UV-I 0 W/m 18,0 km/h (3 Bft)
09.11.2013 21:22 8,3 C 6,7 C 91 % 1002,3 hPa 0,0 l/m 0 min 0 min 0,0 UV-I 0 W/m 15,4 km/h (3 Bft)
09.11.2013 21:24 8,3 C 6,7 C 91 % 1002,3 hPa 0,0 l/m 0 min 0 min 0,0 UV-I 0 W/m 23,2 km/h (4 Bft)
09.11.2013 21:26 8,3 C 6,7 C 91 % 1002,2 hPa 0,0 l/m 0 min 0 min 0,0 UV-I 0 W/m 25,7 km/h (4 Bft)
09.11.2013 21:28 8,3 C 6,7 C 91 % 1002,3 hPa 0,0 l/m 0 min 0 min 0,0 UV-I 0 W/m 10,3 km/h (2 Bft)
09.11.2013 21:30 8,3 C 6,7 C 91 % 1002,3 hPa 0,0 l/m 0 min 2 min 0,0 UV-I 0 W/m 25,7 km/h (4 Bft)
09.11.2013 21:32 8,3 C 6,7 C 91 % 1002,3 hPa 0,0 l/m 0 min 2 min 0,0 UV-I 0 W/m 25,7 km/h (4 Bft)
09.11.2013 21:34 8,3 C 6,7 C 91 % 1002,1 hPa 0,0 l/m 0 min 2 min 0,0 UV-I 0 W/m 15,4 km/h (3 Bft)
09.11.2013 21:36 8,3 C 6,7 C 91 % 1002,2 hPa 0,0 l/m 0 min 2 min 0,0 UV-I 0 W/m 23,2 km/h (4 Bft)
09.11.2013 21:38 8,4 C 6,7 C 91 % 1002,0 hPa 0,0 l/m 0 min 2 min 0,0 UV-I 0 W/m 25,7 km/h (4 Bft)
09.11.2013 21:40 8,4 C 6,7 C 91 % 1002,0 hPa 0,0 l/m 0 min 2 min 0,0 UV-I 0 W/m 15,4 km/h (3 Bft)
09.11.2013 21:42 8,4 C 6,7 C 91 % 1002,0 hPa 0,0 l/m 0 min 0 min 0,0 UV-I 0 W/m 18,0 km/h (3 Bft)
09.11.2013 21:44 8,4 C 6,7 C 91 % 1002,0 hPa 0,0 l/m 0 min 0 min 0,0 UV-I 0 W/m 20,6 km/h (4 Bft)
09.11.2013 21:46 8,4 C 6,7 C 91 % 1002,1 hPa 0,0 l/m 0 min 0 min 0,0 UV-I 0 W/m 20,6 km/h (4 Bft)
09.11.2013 21:48 8,4 C 6,7 C 90 % 1002,0 hPa 0,0 l/m 0 min 0 min 0,0 UV-I 0 W/m 36,0 km/h (5 Bft)
09.11.2013 21:50 8,4 C 6,7 C 90 % 1002,0 hPa 0,0 l/m 0 min 0 min 0,0 UV-I 0 W/m 20,6 km/h (4 Bft)
09.11.2013 21:52 8,4 C 6,7 C 90 % 1002,0 hPa 0,0 l/m 0 min 0 min 0,0 UV-I 0 W/m 33,5 km/h (5 Bft)
09.11.2013 21:54 8,5 C 6,7 C 90 % 1002,0 hPa 0,0 l/m 0 min 0 min 0,0 UV-I 0 W/m 28,3 km/h (4 Bft)
09.11.2013 21:56 8,5 C 6,7 C 90 % 1002,0 hPa 0,0 l/m 0 min 0 min 0,0 UV-I 0 W/m 28,3 km/h (4 Bft)
09.11.2013 21:58 8,5 C 6,7 C 90 % 1002,0 hPa 0,0 l/m 0 min 0 min 0,0 UV-I 0 W/m 23,2 km/h (4 Bft)
09.11.2013 22:00 8,6 C 6,7 C 90 % 1002,0 hPa 0,0 l/m 0 min 0 min 0,0 UV-I 0 W/m 23,2 km/h (4 Bft)
09.11.2013 22:02 8,6 C 6,7 C 90 % 1002,0 hPa 0,0 l/m 0 min 0 min 0,0 UV-I 0 W/m 12,9 km/h (3 Bft)
09.11.2013 22:04 8,6 C 6,7 C 90 % 1002,0 hPa 0,0 l/m 0 min 0 min 0,0 UV-I 0 W/m 23,2 km/h (4 Bft)
09.11.2013 22:06 8,6 C 6,7 C 90 % 1001,9 hPa 0,0 l/m 0 min 0 min 0,0 UV-I 0 W/m 18,0 km/h (3 Bft)
09.11.2013 22:08 8,6 C 6,7 C 89 % 1001,9 hPa 0,0 l/m 0 min 0 min 0,0 UV-I 0 W/m 15,4 km/h (3 Bft)
09.11.2013 22:10 8,6 C 6,7 C 89 % 1001,9 hPa 0,0 l/m 0 min 0 min 0,0 UV-I 0 W/m 25,7 km/h (4 Bft)
09.11.2013 22:12 8,6 C 6,7 C 89 % 1001,9 hPa 0,0 l/m 0 min 0 min 0,0 UV-I 0 W/m 28,3 km/h (4 Bft)
09.11.2013 22:14 8,7 C 6,7 C 89 % 1001,9 hPa 0,0 l/m 0 min 0 min 0,0 UV-I 0 W/m 20,6 km/h (4 Bft)
09.11.2013 22:16 8,7 C 6,7 C 89 % 1001,8 hPa 0,0 l/m 0 min 0 min 0,0 UV-I 0 W/m 23,2 km/h (4 Bft)
09.11.2013 22:18 8,7 C 6,7 C 89 % 1001,8 hPa 0,0 l/m 0 min 2 min 0,0 UV-I 0 W/m 25,7 km/h (4 Bft)
09.11.2013 22:20 8,7 C 6,7 C 89 % 1001,9 hPa 0,0 l/m 0 min 0 min 0,0 UV-I 0 W/m 23,2 km/h (4 Bft)
09.11.2013 22:22 8,7 C 6,7 C 89 % 1001,9 hPa 0,0 l/m 0 min 2 min 0,0 UV-I 0 W/m 20,6 km/h (4 Bft)
09.11.2013 22:24 8,7 C 6,7 C 89 % 1001,9 hPa 0,0 l/m 0 min 2 min 0,0 UV-I 0 W/m 2,6 km/h (1 Bft)
09.11.2013 22:26 8,7 C 6,7 C 89 % 1001,8 hPa 0,0 l/m 0 min 2 min 0,0 UV-I 0 W/m 23,2 km/h (4 Bft)
09.11.2013 22:28 8,7 C 6,7 C 89 % 1002,0 hPa 0,0 l/m 0 min 2 min 0,0 UV-I 0 W/m 23,2 km/h (4 Bft)
09.11.2013 22:30 8,7 C 6,7 C 89 % 1001,9 hPa 0,0 l/m 0 min 2 min 0,0 UV-I 0 W/m 12,9 km/h (3 Bft)
09.11.2013 22:32 8,7 C 6,7 C 89 % 1001,9 hPa 0,0 l/m 0 min 2 min 0,0 UV-I 0 W/m 20,6 km/h (4 Bft)
09.11.2013 22:34 8,7 C 6,7 C 89 % 1001,9 hPa 0,0 l/m 0 min 2 min 0,0 UV-I 0 W/m 28,3 km/h (4 Bft)
09.11.2013 22:36 8,6 C 6,7 C 90 % 1001,8 hPa 0,2 l/m 0 min 2 min 0,0 UV-I 0 W/m 18,0 km/h (3 Bft)
09.11.2013 22:38 8,6 C 6,7 C 90 % 1001,9 hPa 0,0 l/m 0 min 2 min 0,0 UV-I 0 W/m 7,7 km/h (2 Bft)
09.11.2013 22:40 8,5 C 6,7 C 90 % 1001,8 hPa 0,0 l/m 0 min 2 min 0,0 UV-I 0 W/m 12,9 km/h (3 Bft)
09.11.2013 22:42 8,4 C 6,7 C 91 % 1001,8 hPa 0,0 l/m 0 min 2 min 0,0 UV-I 0 W/m 18,0 km/h (3 Bft)
09.11.2013 22:44 8,4 C 6,7 C 91 % 1001,9 hPa 0,0 l/m 0 min 2 min 0,0 UV-I 0 W/m 12,9 km/h (3 Bft)
09.11.2013 22:46 8,3 C 6,7 C 91 % 1001,9 hPa 0,0 l/m 0 min 2 min 0,0 UV-I 0 W/m 10,3 km/h (2 Bft)
09.11.2013 22:48 8,3 C 6,7 C 92 % 1001,8 hPa 0,0 l/m 0 min 2 min 0,0 UV-I 0 W/m 15,4 km/h (3 Bft)
09.11.2013 22:50 8,3 C 6,7 C 92 % 1001,8 hPa 0,0 l/m 0 min 2 min 0,0 UV-I 0 W/m 18,0 km/h (3 Bft)
09.11.2013 22:52 8,2 C 6,7 C 92 % 1001,8 hPa 0,0 l/m 0 min 2 min 0,0 UV-I 0 W/m 15,4 km/h (3 Bft)
09.11.2013 22:54 8,2 C 6,7 C 92 % 1001,8 hPa 0,0 l/m 0 min 0 min 0,0 UV-I 0 W/m 12,9 km/h (3 Bft)
09.11.2013 22:56 8,2 C 6,7 C 92 % 1001,8 hPa 0,0 l/m 0 min 0 min 0,0 UV-I 0 W/m 12,9 km/h (3 Bft)
09.11.2013 22:58 8,2 C 6,7 C 93 % 1001,7 hPa 0,0 l/m 0 min 0 min 0,0 UV-I 0 W/m 10,3 km/h (2 Bft)
09.11.2013 23:00 8,1 C 6,7 C 93 % 1001,7 hPa 0,0 l/m 0 min 0 min 0,0 UV-I 0 W/m 12,9 km/h (3 Bft)
09.11.2013 23:02 8,1 C 6,7 C 93 % 1001,7 hPa 0,0 l/m 0 min 0 min 0,0 UV-I 0 W/m 7,7 km/h (2 Bft)
09.11.2013 23:04 8,1 C 6,7 C 93 % 1001,7 hPa 0,0 l/m 0 min 0 min 0,0 UV-I 0 W/m 23,2 km/h (4 Bft)
09.11.2013 23:06 8,1 C 6,7 C 93 % 1001,7 hPa 0,0 l/m 0 min 0 min 0,0 UV-I 0 W/m 15,4 km/h (3 Bft)
09.11.2013 23:08 8,1 C 6,7 C 93 % 1001,7 hPa 0,0 l/m 0 min 0 min 0,0 UV-I 0 W/m 20,6 km/h (4 Bft)
09.11.2013 23:10 8,1 C 6,7 C 93 % 1001,6 hPa 0,0 l/m 0 min 0 min 0,0 UV-I 0 W/m 18,0 km/h (3 Bft)
09.11.2013 23:12 8,2 C 6,7 C 97 % 1001,6 hPa 0,0 l/m 0 min 0 min 0,0 UV-I 0 W/m 18,0 km/h (3 Bft)
09.11.2013 23:14 8,2 C 6,7 C 93 % 1001,7 hPa 0,0 l/m 0 min 2 min 0,0 UV-I 0 W/m 18,0 km/h (3 Bft)
09.11.2013 23:16 8,2 C 6,7 C 93 % 1001,6 hPa 0,0 l/m 0 min 2 min 0,0 UV-I 0 W/m 18,0 km/h (3 Bft)
09.11.2013 23:18 8,2 C 6,7 C 93 % 1001,6 hPa 0,0 l/m 0 min 2 min 0,0 UV-I 0 W/m 12,9 km/h (3 Bft)
09.11.2013 23:20 8,2 C 6,7 C 93 % 1001,6 hPa 0,0 l/m 0 min 2 min 0,0 UV-I 0 W/m 25,7 km/h (4 Bft)
09.11.2013 23:22 8,3 C 6,7 C 93 % 1001,5 hPa 0,0 l/m 0 min 2 min 0,0 UV-I 0 W/m 12,9 km/h (3 Bft)
09.11.2013 23:24 8,3 C 6,7 C 93 % 1001,7 hPa 0,0 l/m 0 min 2 min 0,0 UV-I 0 W/m 28,3 km/h (4 Bft)
09.11.2013 23:26 8,3 C 6,7 C 93 % 1001,5 hPa 0,2 l/m 0 min 2 min 0,0 UV-I 0 W/m 33,5 km/h (5 Bft)
09.11.2013 23:28 8,3 C 6,7 C 93 % 1001,5 hPa 0,0 l/m 0 min 2 min 0,0 UV-I 0 W/m 12,9 km/h (3 Bft)
09.11.2013 23:30 8,3 C 6,7 C 93 % 1001,5 hPa 0,0 l/m 0 min 2 min 0,0 UV-I 0 W/m 10,3 km/h (2 Bft)
09.11.2013 23:32 8,3 C 6,7 C 93 % 1001,4 hPa 0,0 l/m 0 min 0 min 0,0 UV-I 0 W/m 15,4 km/h (3 Bft)
09.11.2013 23:34 8,3 C 6,7 C 93 % 1001,4 hPa 0,0 l/m 0 min 2 min 0,0 UV-I 0 W/m 10,3 km/h (2 Bft)
09.11.2013 23:36 8,3 C 6,7 C 93 % 1001,5 hPa 0,0 l/m 0 min 0 min 0,0 UV-I 0 W/m 25,7 km/h (4 Bft)
09.11.2013 23:38 8,3 C 6,7 C 93 % 1001,4 hPa 0,0 l/m 0 min 2 min 0,0 UV-I 0 W/m 15,4 km/h (3 Bft)
09.11.2013 23:40 8,3 C 6,7 C 93 % 1001,5 hPa 0,0 l/m 0 min 2 min 0,0 UV-I 0 W/m 15,4 km/h (3 Bft)
09.11.2013 23:42 8,3 C 6,7 C 93 % 1001,6 hPa 0,0 l/m 0 min 2 min 0,0 UV-I 0 W/m 10,3 km/h (2 Bft)
09.11.2013 23:44 8,3 C 6,7 C 93 % 1001,5 hPa 0,0 l/m 0 min 2 min 0,0 UV-I 0 W/m 7,7 km/h (2 Bft)
09.11.2013 23:46 8,3 C 6,7 C 93 % 1001,6 hPa 0,2 l/m 0 min 2 min 0,0 UV-I 0 W/m 12,9 km/h (3 Bft)
09.11.2013 23:48 8,3 C 6,7 C 93 % 1001,5 hPa 0,0 l/m 0 min 2 min 0,0 UV-I 0 W/m 7,7 km/h (2 Bft)
09.11.2013 23:50 8,2 C 6,7 C 93 % 1001,5 hPa 0,0 l/m 0 min 2 min 0,0 UV-I 0 W/m 18,0 km/h (3 Bft)
09.11.2013 23:52 8,2 C 6,7 C 93 % 1001,4 hPa 0,0 l/m 0 min 2 min 0,0 UV-I 0 W/m 18,0 km/h (3 Bft)
09.11.2013 23:54 8,2 C 6,7 C 93 % 1001,5 hPa 0,2 l/m 0 min 2 min 0,0 UV-I 0 W/m 7,7 km/h (2 Bft)
09.11.2013 23:56 8,2 C 6,7 C 94 % 1001,4 hPa 0,0 l/m 0 min 2 min 0,0 UV-I 0 W/m 10,3 km/h (2 Bft)
09.11.2013 23:58 8,2 C 6,7 C 94 % 1001,5 hPa 0,0 l/m 0 min 2 min 0,0 UV-I 0 W/m 18,0 km/h (3 Bft)
_ Min-Zeit 07:06 06:38 14:18 23:32 - - - - - 01:54
Minimum _ 7,5 C 6,1 C 74 % 1001,4 hPa - - - - - 0,0 km/h (0 Bft)
_ Max-Zeit 14:18 12:00 00:06 10:50 01:14 09:06 01:12 00:00 12:06 04:34
Maximum _ 10,9 C 9,4 C 98 % 1011,0 hPa 0,2 l/m 2 min 2 min 0,0 UV-I 471 W/m 41,2 km/h
W-SW (6 Bft)
Durchschnitt _ 9,0 C 7,5 C 86 % 1006,8 hPa #1,6 l/m #4:34 h #4:26 h 0,0 UV-I 167 W/m 16,5 km/h (3 Bft)
© 2013 W. Hausmann